| time (UTC) | temp F | wind direction | speed knots | gust knots | rain 1hr in | rain 24hr in | rain mn in | humidity % | barometer mb |
| 20260507212604 | 53 | 110 | 0.0 | 0.0 | 0.00 | 0.03 | 0.02 | 78 | 1018.7 |
| 20260507212502 | 53 | 110 | 0.0 | 0.0 | 0.00 | 0.03 | 0.02 | 78 | 1018.7 |
| 20260507212404 | 53 | 110 | 0.0 | 0.0 | 0.00 | 0.03 | 0.02 | 78 | 1018.7 |
| 20260507212306 | 53 | 110 | 0.0 | 0.0 | 0.00 | 0.03 | 0.02 | 78 | 1018.7 |
| 20260507212207 | 53 | 109 | 0.0 | 0.0 | 0.00 | 0.03 | 0.02 | 78 | 1018.7 |
| 20260507212105 | 53 | 109 | 0.0 | 0.0 | 0.00 | 0.03 | 0.02 | 78 | 1018.7 |
| 20260507212002 | 53 | 109 | 0.0 | 0.0 | 0.00 | 0.03 | 0.02 | 78 | 1018.7 |
| 20260507211902 | 53 | 109 | 0.0 | 0.0 | 0.00 | 0.03 | 0.02 | 78 | 1018.7 |
| 20260507211804 | 53 | 109 | 0.0 | 0.0 | 0.00 | 0.03 | 0.02 | 78 | 1018.7 |
| 20260507211707 | 53 | 111 | 0.0 | 0.0 | 0.00 | 0.03 | 0.02 | 78 | 1018.7 |
| 20260507211601 | 53 | 111 | 0.0 | 0.0 | 0.00 | 0.03 | 0.02 | 78 | 1018.7 |
| 20260507211502 | 53 | 111 | 0.0 | 0.9 | 0.00 | 0.03 | 0.02 | 78 | 1018.7 |
| 20260507211402 | 53 | 112 | 0.0 | 0.9 | 0.00 | 0.03 | 0.02 | 78 | 1018.7 |
| 20260507211303 | 53 | 113 | 0.0 | 0.9 | 0.00 | 0.03 | 0.02 | 78 | 1018.7 |
| 20260507211205 | 53 | 113 | 0.0 | 0.9 | 0.00 | 0.03 | 0.02 | 78 | 1018.7 |
| 20260507211102 | 53 | 113 | 0.0 | 0.9 | 0.00 | 0.03 | 0.02 | 78 | 1018.7 |
| 20260507211002 | 53 | 113 | 0.0 | 0.9 | 0.00 | 0.03 | 0.02 | 78 | 1018.7 |
| 20260507210903 | 53 | 113 | 0.0 | 0.9 | 0.00 | 0.03 | 0.02 | 78 | 1018.7 |
| 20260507210802 | 53 | 115 | 0.0 | 0.9 | 0.00 | 0.03 | 0.02 | 77 | 1018.7 |
| 20260507210703 | 53 | 115 | 0.0 | 0.9 | 0.00 | 0.03 | 0.02 | 77 | 1018.7 |
| 20260507210602 | 53 | 115 | 0.0 | 0.9 | 0.00 | 0.03 | 0.02 | 77 | 1018.7 |
| 20260507210505 | 53 | 115 | 0.0 | 0.0 | 0.00 | 0.03 | 0.02 | 77 | 1018.7 |
| 20260507210402 | 53 | 117 | 0.0 | 0.0 | 0.00 | 0.03 | 0.02 | 77 | 1018.7 |
| 20260507210303 | 53 | 117 | 0.0 | 0.0 | 0.00 | 0.03 | 0.02 | 77 | 1018.7 |
| 20260507210202 | 53 | 107 | 0.0 | 0.0 | 0.00 | 0.03 | 0.02 | 77 | 1018.7 |
| 20260507210059 | 54 | 107 | 0.0 | 0.0 | 0.00 | 0.03 | 0.02 | 76 | 1018.7 |
| 20260507210001 | 54 | 107 | 0.0 | 0.0 | 0.00 | 0.03 | 0.02 | 76 | 1018.7 |
| 20260507205858 | 54 | 107 | 0.0 | 0.0 | 0.00 | 0.03 | 0.02 | 76 | 1018.7 |
| 20260507205758 | 54 | 107 | 0.0 | 0.0 | 0.00 | 0.03 | 0.02 | 76 | 1018.7 |
| 20260507205658 | 54 | 107 | 0.0 | 0.0 | 0.00 | 0.03 | 0.02 | 76 | 1018.7 |
| 20260507205558 | 54 | 107 | 0.0 | 0.0 | 0.00 | 0.03 | 0.02 | 76 | 1018.7 |
| 20260507205502 | 54 | 110 | 0.0 | 0.0 | 0.00 | 0.03 | 0.02 | 76 | 1018.7 |
| 20260507205359 | 54 | 109 | 0.0 | 0.0 | 0.00 | 0.03 | 0.02 | 76 | 1018.7 |
| 20260507205258 | 54 | 109 | 0.0 | 0.0 | 0.00 | 0.03 | 0.02 | 76 | 1018.7 |
| 20260507205203 | 54 | 114 | 0.0 | 0.0 | 0.00 | 0.03 | 0.02 | 76 | 1018.7 |
| 20260507205058 | 54 | 114 | 0.0 | 0.0 | 0.00 | 0.03 | 0.02 | 76 | 1018.7 |
| 20260507204957 | 54 | 114 | 0.0 | 0.0 | 0.00 | 0.03 | 0.02 | 76 | 1018.7 |
| 20260507204850 | 54 | 114 | 0.0 | 0.0 | 0.00 | 0.03 | 0.02 | 75 | 1018.7 |
| 20260507204750 | 54 | 114 | 0.0 | 0.0 | 0.00 | 0.03 | 0.02 | 75 | 1018.7 |
| 20260507204653 | 54 | 114 | 0.0 | 0.0 | 0.00 | 0.03 | 0.02 | 75 | 1018.7 |
| 20260507204551 | 54 | 115 | 0.0 | 0.0 | 0.00 | 0.03 | 0.02 | 75 | 1018.7 |
| 20260507204449 | 54 | 115 | 0.0 | 0.0 | 0.00 | 0.03 | 0.02 | 75 | 1018.7 |
| 20260507204350 | 54 | 115 | 0.0 | 0.0 | 0.00 | 0.03 | 0.02 | 75 | 1018.7 |
| 20260507204250 | 54 | 114 | 0.0 | 0.0 | 0.00 | 0.03 | 0.02 | 74 | 1018.6 |
| 20260507204153 | 54 | 112 | 0.0 | 0.0 | 0.00 | 0.03 | 0.02 | 74 | 1018.6 |
| 20260507204051 | 54 | 112 | 0.0 | 0.0 | 0.00 | 0.03 | 0.02 | 74 | 1018.6 |
| 20260507203950 | 54 | 111 | 0.0 | 0.0 | 0.00 | 0.03 | 0.02 | 74 | 1018.6 |
| 20260507203850 | 54 | 112 | 0.0 | 0.0 | 0.00 | 0.03 | 0.02 | 74 | 1018.6 |
| 20260507203749 | 54 | 113 | 0.0 | 0.0 | 0.00 | 0.03 | 0.02 | 74 | 1018.6 |
| 20260507203646 | 55 | 124 | 0.0 | 0.0 | 0.00 | 0.03 | 0.02 | 74 | 1018.6 |
| 20260507203545 | 55 | 125 | 0.0 | 0.0 | 0.00 | 0.03 | 0.02 | 74 | 1018.6 |
| 20260507203444 | 55 | 126 | 0.0 | 0.0 | 0.00 | 0.03 | 0.02 | 73 | 1018.6 |
| 20260507203344 | 55 | 128 | 0.0 | 0.0 | 0.00 | 0.03 | 0.02 | 73 | 1018.6 |
| 20260507203244 | 55 | 128 | 0.0 | 0.0 | 0.00 | 0.03 | 0.02 | 73 | 1018.6 |
| 20260507203144 | 55 | 111 | 0.0 | 0.0 | 0.00 | 0.03 | 0.02 | 73 | 1018.6 |
| 20260507203046 | 55 | 110 | 0.0 | 0.0 | 0.00 | 0.03 | 0.02 | 73 | 1018.6 |
| 20260507202944 | 55 | 113 | 0.0 | 0.0 | 0.00 | 0.03 | 0.02 | 73 | 1018.6 |
| 20260507202844 | 55 | 123 | 0.0 | 2.6 | 0.00 | 0.03 | 0.02 | 73 | 1018.6 |
| 20260507202746 | 55 | 123 | 0.0 | 2.6 | 0.00 | 0.03 | 0.02 | 73 | 1018.6 |
| 20260507202646 | 55 | 123 | 0.0 | 2.6 | 0.00 | 0.03 | 0.02 | 73 | 1018.6 |
| 20260507202543 | 55 | 111 | 0.0 | 2.6 | 0.00 | 0.03 | 0.02 | 72 | 1018.6 |
| 20260507202435 | 55 | 107 | 0.0 | 3.5 | 0.00 | 0.03 | 0.02 | 73 | 1018.5 |
| 20260507202338 | 55 | 107 | 0.0 | 3.5 | 0.00 | 0.03 | 0.02 | 73 | 1018.6 |
| 20260507202233 | 55 | 107 | 0.0 | 3.5 | 0.00 | 0.03 | 0.02 | 73 | 1018.5 |
| 20260507202134 | 55 | 107 | 0.0 | 3.5 | 0.00 | 0.03 | 0.02 | 72 | 1018.5 |
| 20260507202039 | 55 | 121 | 0.0 | 3.5 | 0.00 | 0.03 | 0.02 | 72 | 1018.5 |
| 20260507201934 | 55 | 119 | 0.0 | 4.3 | 0.00 | 0.03 | 0.02 | 72 | 1018.5 |
| 20260507201831 | 55 | 109 | 0.0 | 4.3 | 0.00 | 0.03 | 0.02 | 72 | 1018.5 |
| 20260507201728 | 55 | 119 | 0.0 | 4.3 | 0.00 | 0.03 | 0.02 | 72 | 1018.5 |
| 20260507201631 | 55 | 137 | 0.0 | 4.3 | 0.00 | 0.03 | 0.02 | 72 | 1018.5 |
| 20260507201525 | 55 | 128 | 0.0 | 4.3 | 0.00 | 0.03 | 0.02 | 72 | 1018.5 |
| 20260507201422 | 55 | 128 | 0.0 | 4.3 | 0.00 | 0.03 | 0.02 | 72 | 1018.5 |
| 20260507201322 | 55 | 130 | 0.0 | 4.3 | 0.00 | 0.03 | 0.02 | 72 | 1018.5 |
| 20260507201224 | 55 | 120 | 0.0 | 4.3 | 0.00 | 0.03 | 0.02 | 72 | 1018.3 |
| 20260507201125 | 55 | 133 | 0.0 | 4.3 | 0.00 | 0.03 | 0.02 | 72 | 1018.5 |
| 20260507201026 | 55 | 120 | 0.0 | 4.3 | 0.00 | 0.03 | 0.02 | 72 | 1018.5 |
| 20260507200920 | 55 | 123 | 0.0 | 0.9 | 0.00 | 0.03 | 0.02 | 72 | 1018.3 |
| 20260507200817 | 55 | 88 | 0.0 | 0.9 | 0.00 | 0.03 | 0.02 | 72 | 1018.3 |
| 20260507200718 | 55 | 105 | 0.0 | 0.9 | 0.00 | 0.03 | 0.02 | 72 | 1018.3 |
| 20260507200619 | 55 | 104 | 0.0 | 2.6 | 0.00 | 0.03 | 0.02 | 72 | 1018.3 |
| 20260507200521 | 55 | 136 | 0.0 | 2.6 | 0.00 | 0.03 | 0.02 | 72 | 1018.2 |
| 20260507200414 | 55 | 103 | 0.0 | 2.6 | 0.00 | 0.03 | 0.02 | 72 | 1018.2 |
| 20260507200314 | 55 | 112 | 0.0 | 2.6 | 0.00 | 0.03 | 0.02 | 72 | 1018.2 |
| 20260507200218 | 55 | 135 | 0.0 | 2.6 | 0.00 | 0.03 | 0.02 | 72 | 1018.2 |
| 20260507200114 | 55 | 135 | 0.0 | 2.6 | 0.00 | 0.03 | 0.02 | 72 | 1018.2 |
| 20260507200023 | 56 | 132 | 0.0 | 2.6 | 0.00 | 0.03 | 0.02 | 72 | 1018.2 |
| 20260507195916 | 55 | 126 | 0.0 | 2.6 | 0.00 | 0.03 | 0.02 | 72 | 1018.2 |
| 20260507195815 | 55 | 132 | 0.0 | 2.6 | 0.00 | 0.03 | 0.02 | 72 | 1018.1 |
| 20260507195712 | 55 | 123 | 0.0 | 2.6 | 0.00 | 0.03 | 0.02 | 72 | 1018.1 |
| 20260507195612 | 55 | 121 | 0.0 | 1.7 | 0.00 | 0.03 | 0.02 | 72 | 1018.1 |
| 20260507195511 | 55 | 150 | 0.0 | 1.7 | 0.00 | 0.03 | 0.02 | 72 | 1018.1 |
| 20260507195413 | 55 | 117 | 0.0 | 1.7 | 0.00 | 0.03 | 0.02 | 73 | 1018.1 |
| 20260507195313 | 55 | 137 | 0.0 | 1.7 | 0.00 | 0.03 | 0.02 | 73 | 1018.1 |
| 20260507195211 | 55 | 140 | 0.0 | 1.7 | 0.00 | 0.03 | 0.02 | 73 | 1018.1 |
| 20260507195110 | 55 | 127 | 0.0 | 1.7 | 0.00 | 0.03 | 0.02 | 73 | 1018.1 |
| 20260507195008 | 55 | 114 | 0.0 | 1.7 | 0.00 | 0.03 | 0.02 | 73 | 1018.0 |
| 20260507194904 | 55 | 140 | 0.0 | 0.9 | 0.00 | 0.03 | 0.02 | 72 | 1018.0 |
| 20260507194806 | 55 | 131 | 0.0 | 2.6 | 0.00 | 0.03 | 0.02 | 72 | 1018.0 |
| 20260507194705 | 55 | 131 | 0.0 | 2.6 | 0.00 | 0.03 | 0.02 | 73 | 1018.0 |
| 20260507194603 | 56 | 123 | 0.0 | 2.6 | 0.00 | 0.03 | 0.02 | 72 | 1018.0 |
| 20260507194504 | 56 | 123 | 0.0 | 2.6 | 0.00 | 0.03 | 0.02 | 72 | 1018.0 |
| 20260507194400 | 56 | 128 | 0.0 | 2.6 | 0.00 | 0.03 | 0.02 | 72 | 1018.0 |
| 20260507194255 | 56 | 126 | 0.0 | 2.6 | 0.00 | 0.03 | 0.02 | 72 | 1018.0 |
| 20260507194157 | 56 | 105 | 0.0 | 2.6 | 0.00 | 0.03 | 0.02 | 72 | 1018.0 |
| 20260507194057 | 56 | 105 | 0.0 | 2.6 | 0.00 | 0.03 | 0.02 | 72 | 1017.9 |
| 20260507194001 | 56 | 105 | 0.0 | 2.6 | 0.00 | 0.03 | 0.02 | 72 | 1017.9 |
| 20260507193852 | 56 | 105 | 0.0 | 2.6 | 0.00 | 0.03 | 0.02 | 72 | 1017.9 |
| 20260507193753 | 56 | 103 | 0.0 | 0.9 | 0.00 | 0.03 | 0.02 | 72 | 1017.9 |
| 20260507193650 | 56 | 111 | 0.0 | 0.9 | 0.00 | 0.03 | 0.02 | 72 | 1017.9 |
| 20260507193550 | 56 | 111 | 0.0 | 6.1 | 0.00 | 0.03 | 0.02 | 71 | 1017.8 |
| 20260507193450 | 56 | 111 | 0.0 | 6.1 | 0.00 | 0.03 | 0.02 | 71 | 1017.9 |
| 20260507193347 | 56 | 111 | 0.0 | 6.1 | 0.00 | 0.03 | 0.02 | 71 | 1017.9 |
| 20260507193246 | 56 | 111 | 0.0 | 6.1 | 0.00 | 0.03 | 0.02 | 71 | 1017.9 |
| 20260507193143 | 56 | 111 | 0.0 | 6.1 | 0.00 | 0.03 | 0.02 | 70 | 1017.9 |
| 20260507193042 | 56 | 111 | 0.0 | 6.1 | 0.00 | 0.03 | 0.02 | 70 | 1017.9 |
| 20260507192945 | 56 | 119 | 0.0 | 6.1 | 0.00 | 0.03 | 0.02 | 70 | 1017.8 |
| 20260507192840 | 56 | 132 | 0.0 | 6.1 | 0.00 | 0.03 | 0.02 | 70 | 1017.8 |
| 20260507192741 | 57 | 121 | 0.0 | 6.1 | 0.00 | 0.03 | 0.02 | 70 | 1017.8 |
| 20260507192634 | 57 | 135 | 0.0 | 6.1 | 0.00 | 0.03 | 0.02 | 69 | 1017.8 |
| 20260507192534 | 57 | 109 | 0.0 | 4.3 | 0.00 | 0.03 | 0.02 | 69 | 1017.8 |
| 20260507192430 | 57 | 115 | 0.0 | 4.3 | 0.00 | 0.03 | 0.02 | 69 | 1017.8 |
| 20260507192330 | 57 | 146 | 0.0 | 4.3 | 0.00 | 0.03 | 0.02 | 69 | 1017.7 |
| 20260507192232 | 57 | 133 | 0.0 | 4.3 | 0.00 | 0.03 | 0.02 | 69 | 1017.8 |
| 20260507192126 | 57 | 124 | 0.0 | 0.0 | 0.00 | 0.03 | 0.02 | 69 | 1017.7 |
| 20260507192027 | 57 | 139 | 0.0 | 0.0 | 0.00 | 0.03 | 0.02 | 69 | 1017.7 |
| 20260507191928 | 57 | 108 | 0.0 | 0.0 | 0.00 | 0.03 | 0.02 | 69 | 1017.7 |
| 20260507191826 | 57 | 132 | 0.0 | 0.0 | 0.00 | 0.03 | 0.02 | 69 | 1017.7 |
| 20260507191729 | 57 | 134 | 0.0 | 0.0 | 0.00 | 0.03 | 0.02 | 69 | 1017.7 |
| 20260507191625 | 57 | 137 | 0.0 | 0.0 | 0.00 | 0.03 | 0.02 | 69 | 1017.7 |
| 20260507191526 | 57 | 125 | 0.0 | 0.0 | 0.00 | 0.03 | 0.02 | 69 | 1017.7 |
| 20260507191427 | 57 | 175 | 0.0 | 0.0 | 0.00 | 0.03 | 0.02 | 69 | 1017.7 |
| 20260507191320 | 57 | 135 | 0.0 | 0.0 | 0.00 | 0.03 | 0.02 | 69 | 1017.7 |
| 20260507191223 | 57 | 135 | 0.0 | 0.0 | 0.00 | 0.03 | 0.02 | 69 | 1017.7 |
| 20260507191119 | 57 | 136 | 0.0 | 0.0 | 0.00 | 0.03 | 0.02 | 69 | 1017.7 |
| 20260507191021 | 57 | 115 | 0.0 | 0.0 | 0.00 | 0.03 | 0.02 | 69 | 1017.6 |
| 20260507190917 | 57 | 119 | 0.0 | 0.0 | 0.00 | 0.03 | 0.02 | 68 | 1017.7 |
| 20260507190816 | 57 | 126 | 0.0 | 0.9 | 0.00 | 0.03 | 0.02 | 68 | 1017.6 |
| 20260507190717 | 57 | 122 | 0.0 | 0.9 | 0.00 | 0.03 | 0.02 | 68 | 1017.6 |
| 20260507190609 | 57 | 136 | 0.0 | 0.9 | 0.00 | 0.03 | 0.02 | 68 | 1017.6 |
| 20260507190509 | 57 | 119 | 0.0 | 0.9 | 0.00 | 0.03 | 0.02 | 68 | 1017.6 |
| 20260507190406 | 57 | 116 | 0.0 | 0.9 | 0.00 | 0.03 | 0.02 | 68 | 1017.5 |
| 20260507190308 | 57 | 126 | 0.0 | 1.7 | 0.00 | 0.03 | 0.02 | 68 | 1017.6 |
| 20260507190202 | 57 | 122 | 0.0 | 7.0 | 0.00 | 0.03 | 0.02 | 68 | 1017.6 |
| 20260507190002 | 57 | 133 | 0.9 | 7.0 | 0.00 | 0.03 | 0.02 | 68 | 1017.5 |
| 20260507185905 | 57 | 135 | 0.9 | 7.0 | 0.00 | 0.03 | 0.02 | 68 | 1017.6 |
| 20260507185801 | 57 | 111 | 0.9 | 7.0 | 0.00 | 0.03 | 0.02 | 68 | 1017.5 |
| 20260507185704 | 57 | 134 | 0.9 | 7.0 | 0.00 | 0.03 | 0.02 | 68 | 1017.5 |
| 20260507185557 | 57 | 114 | 0.9 | 7.0 | 0.00 | 0.03 | 0.02 | 68 | 1017.5 |
| 20260507185500 | 57 | 124 | 0.9 | 7.0 | 0.00 | 0.03 | 0.02 | 68 | 1017.5 |
| 20260507185400 | 57 | 137 | 0.9 | 7.0 | 0.00 | 0.03 | 0.02 | 68 | 1017.5 |
| 20260507185255 | 58 | 140 | 0.9 | 7.0 | 0.00 | 0.03 | 0.02 | 68 | 1017.5 |
| 20260507185157 | 58 | 104 | 0.9 | 7.0 | 0.00 | 0.03 | 0.02 | 68 | 1017.5 |
| 20260507185049 | 58 | 111 | 0.9 | 7.0 | 0.00 | 0.03 | 0.02 | 67 | 1017.5 |
| 20260507184951 | 58 | 101 | 0.9 | 7.0 | 0.00 | 0.03 | 0.02 | 67 | 1017.5 |
| 20260507184852 | 58 | 120 | 0.9 | 7.0 | 0.00 | 0.03 | 0.02 | 67 | 1017.5 |
| 20260507184748 | 58 | 106 | 0.9 | 7.0 | 0.00 | 0.03 | 0.02 | 67 | 1017.5 |
| 20260507184651 | 58 | 113 | 0.9 | 7.0 | 0.00 | 0.03 | 0.02 | 67 | 1017.5 |
| 20260507184546 | 58 | 139 | 0.9 | 7.0 | 0.00 | 0.03 | 0.02 | 67 | 1017.4 |
| 20260507184448 | 58 | 124 | 0.9 | 7.0 | 0.00 | 0.03 | 0.02 | 67 | 1017.4 |
| 20260507184347 | 58 | 104 | 0.9 | 7.0 | 0.00 | 0.03 | 0.02 | 67 | 1017.4 |
| 20260507184245 | 58 | 119 | 0.9 | 7.0 | 0.00 | 0.03 | 0.02 | 66 | 1017.4 |
| 20260507184144 | 58 | 123 | 0.0 | 6.1 | 0.00 | 0.03 | 0.02 | 66 | 1017.4 |
| 20260507184038 | 58 | 113 | 0.0 | 6.1 | 0.00 | 0.03 | 0.02 | 66 | 1017.4 |
| 20260507183937 | 58 | 140 | 0.0 | 4.3 | 0.00 | 0.03 | 0.02 | 67 | 1017.4 |
| 20260507183840 | 58 | 123 | 0.0 | 3.5 | 0.00 | 0.03 | 0.02 | 67 | 1017.4 |
| 20260507183737 | 58 | 119 | 0.0 | 2.6 | 0.00 | 0.03 | 0.02 | 67 | 1017.4 |
| 20260507183639 | 58 | 109 | 0.0 | 2.6 | 0.00 | 0.03 | 0.02 | 67 | 1017.4 |
| 20260507183533 | 58 | 130 | 0.0 | 2.6 | 0.00 | 0.03 | 0.02 | 67 | 1017.4 |
| 20260507183434 | 58 | 127 | 0.0 | 4.3 | 0.00 | 0.03 | 0.02 | 68 | 1017.4 |
| 20260507183334 | 58 | 96 | 0.0 | 4.3 | 0.00 | 0.03 | 0.02 | 68 | 1017.4 |
| 20260507183233 | 58 | 132 | 0.0 | 4.3 | 0.00 | 0.03 | 0.02 | 67 | 1017.4 |
| 20260507183133 | 58 | 136 | 0.0 | 4.3 | 0.00 | 0.03 | 0.02 | 68 | 1017.4 |
| 20260507183033 | 59 | 128 | 0.0 | 4.3 | 0.00 | 0.03 | 0.02 | 68 | 1017.3 |
| 20260507182929 | 59 | 119 | 0.0 | 4.3 | 0.00 | 0.03 | 0.02 | 67 | 1017.3 |
| 20260507182835 | 59 | 123 | 0.0 | 4.3 | 0.00 | 0.03 | 0.02 | 68 | 1017.3 |
| 20260507182726 | 59 | 126 | 0.0 | 4.3 | 0.00 | 0.03 | 0.02 | 67 | 1017.4 |
| 20260507182627 | 59 | 126 | 0.0 | 4.3 | 0.00 | 0.03 | 0.02 | 67 | 1017.4 |
| 20260507182520 | 59 | 132 | 0.0 | 4.3 | 0.00 | 0.03 | 0.02 | 67 | 1017.3 |
| 20260507182419 | 59 | 150 | 0.0 | 1.7 | 0.00 | 0.03 | 0.02 | 67 | 1017.3 |
| 20260507182318 | 59 | 107 | 0.0 | 1.7 | 0.00 | 0.03 | 0.02 | 67 | 1017.4 |
| 20260507182217 | 59 | 121 | 0.0 | 5.2 | 0.00 | 0.03 | 0.02 | 67 | 1017.3 |
| 20260507182120 | 59 | 90 | 0.0 | 5.2 | 0.00 | 0.03 | 0.02 | 67 | 1017.3 |
| 20260507182019 | 59 | 130 | 0.0 | 5.2 | 0.00 | 0.03 | 0.02 | 67 | 1017.3 |
| 20260507181915 | 59 | 132 | 0.0 | 5.2 | 0.00 | 0.03 | 0.02 | 67 | 1017.3 |
| 20260507181817 | 59 | 110 | 0.0 | 5.2 | 0.00 | 0.03 | 0.02 | 67 | 1017.3 |
| 20260507181712 | 59 | 92 | 0.0 | 5.2 | 0.00 | 0.03 | 0.02 | 67 | 1017.3 |
| 20260507181612 | 59 | 113 | 0.0 | 5.2 | 0.00 | 0.03 | 0.02 | 67 | 1017.3 |
| 20260507181506 | 59 | 140 | 0.0 | 5.2 | 0.00 | 0.03 | 0.02 | 67 | 1017.3 |
| 20260507181404 | 59 | 93 | 0.0 | 5.2 | 0.00 | 0.03 | 0.02 | 66 | 1017.2 |
| 20260507181300 | 59 | 120 | 0.0 | 5.2 | 0.00 | 0.03 | 0.02 | 66 | 1017.3 |
| 20260507181201 | 59 | 136 | 0.0 | 5.2 | 0.00 | 0.03 | 0.02 | 66 | 1017.3 |
| 20260507181104 | 59 | 139 | 0.0 | 5.2 | 0.00 | 0.03 | 0.02 | 66 | 1017.2 |
| 20260507181004 | 59 | 112 | 0.0 | 5.2 | 0.00 | 0.03 | 0.02 | 66 | 1017.2 |
| 20260507180901 | 59 | 109 | 0.0 | 5.2 | 0.00 | 0.03 | 0.02 | 66 | 1017.2 |
| 20260507180807 | 60 | 121 | 0.0 | 5.2 | 0.00 | 0.03 | 0.02 | 65 | 1017.2 |
| 20260507180700 | 60 | 109 | 0.0 | 5.2 | 0.00 | 0.03 | 0.02 | 65 | 1017.2 |
| 20260507180602 | 60 | 126 | 0.0 | 5.2 | 0.00 | 0.03 | 0.02 | 65 | 1017.2 |
| 20260507180455 | 60 | 66 | 0.0 | 5.2 | 0.00 | 0.03 | 0.02 | 65 | 1017.2 |
| 20260507180356 | 60 | 98 | 0.0 | 5.2 | 0.00 | 0.03 | 0.02 | 65 | 1017.2 |
| 20260507180255 | 60 | 119 | 0.0 | 5.2 | 0.00 | 0.03 | 0.02 | 65 | 1017.2 |
| 20260507180155 | 60 | 117 | 0.0 | 3.5 | 0.00 | 0.03 | 0.02 | 65 | 1017.2 |
| 20260507180051 | 60 | 102 | 0.0 | 3.5 | 0.00 | 0.03 | 0.02 | 65 | 1017.2 |
| 20260507175950 | 60 | 128 | 0.0 | 3.5 | 0.00 | 0.03 | 0.02 | 65 | 1017.2 |
| 20260507175850 | 60 | 103 | 0.0 | 3.5 | 0.00 | 0.03 | 0.02 | 64 | 1017.2 |
| 20260507175752 | 60 | 105 | 0.0 | 0.9 | 0.00 | 0.03 | 0.02 | 64 | 1017.2 |
| 20260507175648 | 60 | 111 | 0.0 | 2.6 | 0.00 | 0.03 | 0.02 | 64 | 1017.2 |
| 20260507175549 | 60 | 128 | 0.0 | 3.5 | 0.00 | 0.03 | 0.02 | 64 | 1017.2 |
| 20260507175446 | 60 | 128 | 0.0 | 3.5 | 0.00 | 0.03 | 0.02 | 64 | 1017.2 |
| 20260507175341 | 60 | 98 | 0.0 | 3.5 | 0.00 | 0.03 | 0.02 | 64 | 1017.2 |
| 20260507175240 | 60 | 98 | 0.0 | 3.5 | 0.00 | 0.03 | 0.02 | 63 | 1017.1 |
| 20260507175141 | 60 | 111 | 0.0 | 3.5 | 0.00 | 0.03 | 0.02 | 63 | 1017.1 |
| 20260507175041 | 60 | 90 | 0.0 | 3.5 | 0.00 | 0.03 | 0.02 | 62 | 1017.1 |
| 20260507174935 | 60 | 128 | 0.0 | 3.5 | 0.00 | 0.03 | 0.02 | 62 | 1017.1 |
| 20260507174833 | 61 | 99 | 0.0 | 3.5 | 0.00 | 0.03 | 0.02 | 62 | 1017.1 |
| 20260507174735 | 61 | 109 | 0.0 | 3.5 | 0.00 | 0.03 | 0.02 | 61 | 1017.1 |
| 20260507174632 | 61 | 104 | 0.0 | 3.5 | 0.00 | 0.03 | 0.02 | 61 | 1017.1 |
| 20260507174534 | 61 | 94 | 0.0 | 1.7 | 0.00 | 0.03 | 0.02 | 61 | 1017.1 |
| 20260507174428 | 61 | 109 | 0.0 | 0.0 | 0.00 | 0.03 | 0.02 | 60 | 1017.1 |
| 20260507174327 | 61 | 99 | 0.0 | 0.0 | 0.00 | 0.03 | 0.02 | 59 | 1017.1 |
| 20260507174230 | 61 | 96 | 0.0 | 0.9 | 0.00 | 0.03 | 0.02 | 59 | 1017.1 |
| 20260507174129 | 61 | 100 | 0.0 | 7.0 | 0.00 | 0.03 | 0.02 | 59 | 1017.2 |
| 20260507174028 | 61 | 97 | 0.0 | 7.0 | 0.00 | 0.03 | 0.02 | 60 | 1017.1 |
| 20260507173926 | 61 | 118 | 0.0 | 7.0 | 0.00 | 0.03 | 0.02 | 60 | 1017.1 |
| 20260507173823 | 61 | 107 | 0.0 | 7.0 | 0.00 | 0.03 | 0.02 | 61 | 1017.1 |
| 20260507173730 | 61 | 94 | 0.0 | 7.0 | 0.00 | 0.03 | 0.02 | 60 | 1017.1 |
| 20260507173621 | 61 | 104 | 0.0 | 7.0 | 0.00 | 0.03 | 0.02 | 60 | 1017.1 |
| 20260507173520 | 61 | 113 | 0.0 | 7.0 | 0.00 | 0.03 | 0.02 | 60 | 1017.1 |
| 20260507173412 | 61 | 92 | 0.0 | 7.0 | 0.00 | 0.03 | 0.02 | 60 | 1017.1 |
| 20260507173310 | 61 | 114 | 0.0 | 7.0 | 0.00 | 0.03 | 0.02 | 59 | 1017.1 |
| 20260507173208 | 61 | 117 | 0.0 | 7.0 | 0.00 | 0.03 | 0.02 | 60 | 1017.0 |
| 20260507173106 | 61 | 92 | 0.0 | 5.2 | 0.00 | 0.03 | 0.02 | 60 | 1017.1 |
| 20260507173007 | 61 | 119 | 0.0 | 5.2 | 0.00 | 0.03 | 0.02 | 59 | 1017.0 |
| 20260507172904 | 61 | 119 | 0.0 | 5.2 | 0.00 | 0.03 | 0.02 | 60 | 1017.0 |
| 20260507172804 | 61 | 101 | 0.0 | 5.2 | 0.00 | 0.03 | 0.02 | 60 | 1017.0 |
| 20260507172704 | 61 | 103 | 0.0 | 5.2 | 0.00 | 0.03 | 0.02 | 60 | 1017.0 |
| 20260507172603 | 61 | 90 | 0.0 | 5.2 | 0.00 | 0.03 | 0.02 | 59 | 1017.0 |
| 20260507172503 | 61 | 101 | 0.0 | 5.2 | 0.00 | 0.03 | 0.02 | 59 | 1017.1 |
| 20260507172403 | 61 | 108 | 0.0 | 3.5 | 0.00 | 0.03 | 0.02 | 59 | 1017.1 |
| 20260507172306 | 61 | 122 | 0.0 | 3.5 | 0.00 | 0.03 | 0.02 | 59 | 1017.1 |
| 20260507172202 | 61 | 117 | 0.0 | 5.2 | 0.00 | 0.03 | 0.02 | 60 | 1017.1 |
| 20260507172059 | 61 | 117 | 0.0 | 5.2 | 0.00 | 0.03 | 0.02 | 60 | 1017.0 |
| 20260507172000 | 61 | 88 | 0.0 | 5.2 | 0.00 | 0.03 | 0.02 | 59 | 1017.0 |
| 20260507171901 | 61 | 103 | 0.0 | 5.2 | 0.00 | 0.03 | 0.02 | 59 | 1017.0 |
| 20260507171800 | 62 | 123 | 0.0 | 5.2 | 0.00 | 0.03 | 0.02 | 58 | 1017.0 |
| 20260507171707 | 62 | 150 | 0.0 | 5.2 | 0.00 | 0.03 | 0.02 | 60 | 1017.0 |
| 20260507171600 | 62 | 108 | 0.0 | 5.2 | 0.00 | 0.03 | 0.02 | 60 | 1017.0 |
| 20260507171503 | 62 | 128 | 0.0 | 5.2 | 0.00 | 0.03 | 0.02 | 58 | 1017.0 |
| 20260507171354 | 62 | 134 | 0.0 | 5.2 | 0.00 | 0.03 | 0.02 | 57 | 1017.1 |
| 20260507171258 | 62 | 107 | 0.0 | 5.2 | 0.00 | 0.03 | 0.02 | 58 | 1017.1 |
| 20260507171154 | 62 | 115 | 0.0 | 4.3 | 0.00 | 0.03 | 0.02 | 58 | 1017.1 |
| 20260507171052 | 62 | 98 | 0.0 | 3.5 | 0.00 | 0.03 | 0.02 | 58 | 1017.1 |
| 20260507170950 | 62 | 105 | 0.0 | 3.5 | 0.00 | 0.03 | 0.02 | 57 | 1017.1 |
| 20260507170847 | 62 | 107 | 0.0 | 3.5 | 0.00 | 0.03 | 0.02 | 57 | 1017.1 |
| 20260507170748 | 62 | 74 | 0.0 | 5.2 | 0.00 | 0.03 | 0.02 | 58 | 1017.1 |
| 20260507170647 | 62 | 113 | 0.0 | 5.2 | 0.00 | 0.03 | 0.02 | 58 | 1017.1 |
| 20260507170548 | 62 | 79 | 0.0 | 5.2 | 0.00 | 0.03 | 0.02 | 58 | 1017.1 |
| 20260507170449 | 62 | 78 | 0.0 | 5.2 | 0.00 | 0.03 | 0.02 | 59 | 1017.0 |
| 20260507170347 | 62 | 103 | 0.9 | 7.8 | 0.00 | 0.03 | 0.02 | 59 | 1017.1 |
| 20260507170250 | 62 | 104 | 0.9 | 7.8 | 0.00 | 0.03 | 0.02 | 58 | 1017.1 |
| 20260507170145 | 62 | 122 | 0.9 | 7.8 | 0.00 | 0.03 | 0.02 | 59 | 1017.1 |
| 20260507170046 | 62 | 107 | 0.9 | 7.8 | 0.00 | 0.03 | 0.02 | 59 | 1017.1 |
| 20260507165944 | 62 | 103 | 0.9 | 7.8 | 0.00 | 0.03 | 0.02 | 57 | 1017.1 |
| 20260507165847 | 62 | 74 | 0.9 | 7.8 | 0.00 | 0.03 | 0.02 | 57 | 1017.1 |
| 20260507165743 | 62 | 114 | 0.9 | 7.8 | 0.00 | 0.03 | 0.02 | 57 | 1017.1 |
| 20260507165646 | 62 | 112 | 0.9 | 7.8 | 0.00 | 0.03 | 0.02 | 56 | 1017.2 |
| 20260507165544 | 62 | 80 | 0.9 | 7.8 | 0.00 | 0.03 | 0.02 | 56 | 1017.1 |
| 20260507165442 | 62 | 128 | 0.9 | 7.8 | 0.00 | 0.03 | 0.02 | 56 | 1017.1 |
| 20260507165342 | 62 | 112 | 0.9 | 6.1 | 0.00 | 0.03 | 0.02 | 56 | 1017.1 |
| 20260507165244 | 62 | 83 | 0.9 | 6.1 | 0.00 | 0.03 | 0.02 | 56 | 1017.1 |
| 20260507165136 | 62 | 88 | 0.9 | 6.1 | 0.00 | 0.03 | 0.02 | 57 | 1017.1 |
| 20260507165038 | 62 | 85 | 0.9 | 6.1 | 0.00 | 0.03 | 0.02 | 58 | 1017.1 |
| 20260507164940 | 62 | 101 | 0.9 | 6.1 | 0.00 | 0.03 | 0.02 | 57 | 1017.1 |
| 20260507164837 | 62 | 60 | 0.0 | 5.2 | 0.00 | 0.03 | 0.02 | 57 | 1017.1 |
| 20260507164737 | 63 | 91 | 0.0 | 5.2 | 0.00 | 0.03 | 0.02 | 56 | 1017.1 |
| 20260507164637 | 63 | 63 | 0.0 | 5.2 | 0.00 | 0.03 | 0.02 | 58 | 1017.1 |
| 20260507164536 | 63 | 99 | 0.0 | 5.2 | 0.00 | 0.03 | 0.02 | 57 | 1017.2 |
| 20260507164440 | 63 | 101 | 0.0 | 5.2 | 0.00 | 0.03 | 0.02 | 57 | 1017.1 |
| 20260507164334 | 63 | 83 | 0.0 | 5.2 | 0.00 | 0.03 | 0.02 | 57 | 1017.2 |
| 20260507164236 | 63 | 79 | 0.0 | 5.2 | 0.00 | 0.03 | 0.02 | 57 | 1017.1 |
| 20260507164134 | 62 | 105 | 0.0 | 5.2 | 0.00 | 0.03 | 0.02 | 56 | 1017.1 |
| 20260507164033 | 63 | 95 | 0.0 | 5.2 | 0.00 | 0.03 | 0.02 | 55 | 1017.2 |
| 20260507163935 | 63 | 71 | 0.0 | 5.2 | 0.00 | 0.03 | 0.02 | 55 | 1017.2 |
| 20260507163834 | 63 | 98 | 0.0 | 5.2 | 0.00 | 0.03 | 0.02 | 55 | 1017.2 |
| 20260507163733 | 63 | 116 | 0.9 | 6.1 | 0.00 | 0.03 | 0.02 | 56 | 1017.2 |
| 20260507163631 | 63 | 113 | 0.9 | 6.1 | 0.00 | 0.03 | 0.02 | 57 | 1017.3 |
| 20260507163532 | 63 | 113 | 0.0 | 6.1 | 0.00 | 0.03 | 0.02 | 58 | 1017.2 |
| 20260507163433 | 63 | 119 | 0.0 | 6.1 | 0.00 | 0.03 | 0.02 | 59 | 1017.3 |
| 20260507163333 | 63 | 85 | 0.0 | 6.1 | 0.00 | 0.03 | 0.02 | 57 | 1017.3 |
| 20260507163229 | 63 | 92 | 0.0 | 6.1 | 0.00 | 0.03 | 0.02 | 56 | 1017.3 |
| 20260507163131 | 63 | 118 | 0.0 | 6.1 | 0.00 | 0.03 | 0.02 | 55 | 1017.2 |
| 20260507163029 | 63 | 123 | 0.0 | 6.1 | 0.00 | 0.03 | 0.02 | 55 | 1017.3 |
| 20260507162935 | 63 | 93 | 0.0 | 6.1 | 0.00 | 0.03 | 0.02 | 56 | 1017.2 |
| 20260507162830 | 63 | 80 | 0.0 | 6.1 | 0.00 | 0.03 | 0.02 | 55 | 1017.2 |
| 20260507162727 | 63 | 119 | 0.0 | 4.3 | 0.00 | 0.03 | 0.02 | 56 | 1017.2 |
| 20260507162628 | 63 | 98 | 0.0 | 4.3 | 0.00 | 0.03 | 0.02 | 56 | 1017.2 |
| 20260507162528 | 63 | 61 | 0.0 | 4.3 | 0.00 | 0.03 | 0.02 | 55 | 1017.2 |
| 20260507162430 | 63 | 115 | 0.0 | 4.3 | 0.00 | 0.03 | 0.02 | 55 | 1017.2 |
| 20260507162327 | 63 | 76 | 0.0 | 4.3 | 0.00 | 0.03 | 0.02 | 54 | 1017.3 |
| 20260507162221 | 63 | 105 | 0.0 | 4.3 | 0.00 | 0.03 | 0.02 | 55 | 1017.2 |
| 20260507162122 | 63 | 63 | 0.0 | 3.5 | 0.00 | 0.03 | 0.02 | 56 | 1017.2 |
| 20260507162024 | 63 | 76 | 0.0 | 3.5 | 0.00 | 0.03 | 0.02 | 56 | 1017.2 |
| 20260507161925 | 63 | 105 | 0.0 | 3.5 | 0.00 | 0.03 | 0.02 | 56 | 1017.3 |
| 20260507161820 | 63 | 84 | 0.0 | 3.5 | 0.00 | 0.03 | 0.02 | 55 | 1017.3 |
| 20260507161717 | 63 | 60 | 0.0 | 3.5 | 0.00 | 0.03 | 0.02 | 56 | 1017.3 |
| 20260507161618 | 63 | 129 | 0.0 | 3.5 | 0.00 | 0.03 | 0.02 | 55 | 1017.3 |
| 20260507161517 | 63 | 94 | 0.0 | 3.5 | 0.00 | 0.03 | 0.02 | 53 | 1017.2 |
| 20260507161422 | 63 | 84 | 0.0 | 3.5 | 0.00 | 0.03 | 0.02 | 51 | 1017.2 |
| 20260507161318 | 63 | 113 | 0.0 | 3.5 | 0.00 | 0.03 | 0.02 | 51 | 1017.2 |
| 20260507161215 | 63 | 106 | 0.0 | 3.5 | 0.00 | 0.03 | 0.02 | 51 | 1017.2 |
| 20260507161115 | 63 | 92 | 0.0 | 3.5 | 0.00 | 0.03 | 0.02 | 52 | 1017.2 |
| 20260507161015 | 63 | 109 | 0.0 | 3.5 | 0.00 | 0.03 | 0.02 | 52 | 1017.2 |
| 20260507160921 | 63 | 113 | 0.0 | 3.5 | 0.00 | 0.03 | 0.02 | 54 | 1017.2 |
| 20260507160818 | 63 | 107 | 0.0 | 1.7 | 0.00 | 0.03 | 0.02 | 55 | 1017.2 |
| 20260507160715 | 63 | 95 | 0.0 | 1.7 | 0.00 | 0.03 | 0.02 | 53 | 1017.2 |
| 20260507160616 | 63 | 105 | 0.0 | 1.7 | 0.00 | 0.03 | 0.02 | 53 | 1017.2 |
| 20260507160508 | 63 | 105 | 0.0 | 1.7 | 0.00 | 0.03 | 0.02 | 53 | 1017.3 |
| 20260507160407 | 63 | 102 | 0.0 | 1.7 | 0.00 | 0.03 | 0.02 | 52 | 1017.3 |
| 20260507160304 | 63 | 88 | 0.0 | 1.7 | 0.00 | 0.03 | 0.02 | 52 | 1017.3 |
| 20260507160202 | 63 | 110 | 0.0 | 1.7 | 0.00 | 0.03 | 0.02 | 55 | 1017.3 |
| 20260507160000 | 63 | 134 | 0.0 | 0.9 | 0.00 | 0.03 | 0.02 | 52 | 1017.3 |
| 20260507155900 | 63 | 88 | 0.0 | 3.5 | 0.00 | 0.03 | 0.02 | 52 | 1017.3 |
| 20260507155759 | 64 | 135 | 0.0 | 3.5 | 0.00 | 0.03 | 0.02 | 53 | 1017.3 |
| 20260507155653 | 64 | 136 | 0.0 | 3.5 | 0.00 | 0.03 | 0.02 | 53 | 1017.3 |
| 20260507155554 | 64 | 103 | 0.0 | 3.5 | 0.00 | 0.03 | 0.02 | 51 | 1017.3 |
| 20260507155453 | 64 | 109 | 0.0 | 3.5 | 0.00 | 0.03 | 0.02 | 52 | 1017.3 |
| 20260507155352 | 64 | 81 | 0.0 | 3.5 | 0.00 | 0.03 | 0.02 | 56 | 1017.3 |
| 20260507155249 | 64 | 84 | 0.0 | 3.5 | 0.00 | 0.03 | 0.02 | 55 | 1017.3 |
| 20260507155149 | 63 | 92 | 0.0 | 3.5 | 0.00 | 0.03 | 0.02 | 56 | 1017.3 |
| 20260507155050 | 63 | 96 | 0.0 | 3.5 | 0.00 | 0.03 | 0.02 | 55 | 1017.3 |
| 20260507154952 | 63 | 136 | 0.0 | 3.5 | 0.00 | 0.03 | 0.02 | 56 | 1017.2 |
| 20260507154849 | 63 | 41 | 0.0 | 0.0 | 0.00 | 0.03 | 0.02 | 54 | 1017.3 |
| 20260507154752 | 63 | 48 | 0.0 | 0.0 | 0.00 | 0.03 | 0.02 | 55 | 1017.3 |
| 20260507154650 | 63 | 83 | 0.0 | 0.0 | 0.00 | 0.03 | 0.02 | 54 | 1017.3 |
| 20260507154552 | 63 | 142 | 0.0 | 0.0 | 0.00 | 0.03 | 0.02 | 54 | 1017.3 |
| 20260507154450 | 63 | 115 | 0.0 | 0.0 | 0.00 | 0.03 | 0.02 | 53 | 1017.3 |
| 20260507154349 | 63 | 111 | 0.0 | 0.9 | 0.00 | 0.03 | 0.02 | 53 | 1017.2 |
| 20260507154250 | 63 | 96 | 0.0 | 1.7 | 0.00 | 0.03 | 0.02 | 55 | 1017.2 |
| 20260507154150 | 63 | 86 | 0.0 | 1.7 | 0.00 | 0.03 | 0.02 | 55 | 1017.3 |
| 20260507154051 | 63 | 97 | 0.0 | 1.7 | 0.00 | 0.03 | 0.02 | 54 | 1017.2 |
| 20260507153949 | 63 | 110 | 0.0 | 1.7 | 0.00 | 0.03 | 0.02 | 55 | 1017.2 |
| 20260507153848 | 63 | 102 | 0.0 | 1.7 | 0.00 | 0.03 | 0.02 | 53 | 1017.2 |
| 20260507153744 | 63 | 125 | 0.0 | 1.7 | 0.00 | 0.03 | 0.02 | 56 | 1017.2 |
| 20260507153642 | 63 | 83 | 0.0 | 1.7 | 0.00 | 0.03 | 0.02 | 55 | 1017.2 |
| 20260507153544 | 63 | 74 | 0.0 | 1.7 | 0.00 | 0.03 | 0.02 | 56 | 1017.2 |
| 20260507153439 | 63 | 99 | 0.0 | 1.7 | 0.00 | 0.03 | 0.02 | 57 | 1017.2 |
| 20260507153339 | 63 | 86 | 0.0 | 1.7 | 0.00 | 0.03 | 0.02 | 56 | 1017.2 |
| 20260507153300 | 63 | 99 | 0.0 | 0.9 | 0.00 | 0.03 | 0.02 | 56 | 1017.2 |
| 20260507153239 | 63 | 147 | 0.0 | 0.0 | 0.00 | 0.03 | 0.02 | 56 | 1017.2 |
| 20260507153141 | 63 | 128 | 0.0 | 0.0 | 0.00 | 0.03 | 0.02 | 55 | 1017.2 |
| 20260507153036 | 63 | 119 | 0.0 | 0.0 | 0.00 | 0.03 | 0.02 | 57 | 1017.2 |
| 20260507152933 | 63 | 99 | 0.0 | 0.9 | 0.00 | 0.03 | 0.02 | 56 | 1017.2 |
| 20260507152833 | 63 | 139 | 0.0 | 3.5 | 0.00 | 0.03 | 0.02 | 54 | 1017.2 |
| 20260507152733 | 63 | 126 | 0.0 | 3.5 | 0.00 | 0.03 | 0.02 | 56 | 1017.2 |
| 20260507152633 | 63 | 83 | 0.0 | 3.5 | 0.00 | 0.03 | 0.02 | 56 | 1017.2 |
| 20260507152533 | 63 | 108 | 0.0 | 3.5 | 0.00 | 0.03 | 0.02 | 56 | 1017.2 |
| 20260507152433 | 63 | 131 | 0.0 | 3.5 | 0.00 | 0.03 | 0.02 | 54 | 1017.2 |
| 20260507152347 | 63 | 122 | 0.0 | 3.5 | 0.00 | 0.03 | 0.02 | 55 | 1017.3 |
| 20260507152336 | 63 | 127 | 0.0 | 3.5 | 0.00 | 0.03 | 0.02 | 55 | 1017.2 |
| 20260507152234 | 63 | 99 | 0.0 | 3.5 | 0.00 | 0.03 | 0.02 | 55 | 1017.3 |
| 20260507152134 | 63 | 100 | 0.0 | 3.5 | 0.00 | 0.03 | 0.02 | 54 | 1017.2 |
| 20260507152036 | 63 | 109 | 0.0 | 3.5 | 0.00 | 0.03 | 0.02 | 57 | 1017.3 |
| 20260507151934 | 63 | 115 | 0.0 | 3.5 | 0.00 | 0.03 | 0.02 | 56 | 1017.2 |
| 20260507151834 | 63 | 122 | 0.0 | 3.5 | 0.00 | 0.03 | 0.02 | 55 | 1017.3 |
| 20260507151736 | 63 | 107 | 0.0 | 0.9 | 0.00 | 0.03 | 0.02 | 56 | 1017.3 |
| 20260507151633 | 63 | 112 | 0.0 | 1.7 | 0.00 | 0.03 | 0.02 | 56 | 1017.3 |
| 20260507151534 | 63 | 109 | 0.0 | 1.7 | 0.00 | 0.03 | 0.02 | 56 | 1017.3 |
| 20260507151435 | 63 | 111 | 0.0 | 1.7 | 0.00 | 0.03 | 0.02 | 56 | 1017.2 |
| 20260507151332 | 63 | 91 | 0.0 | 5.2 | 0.00 | 0.03 | 0.02 | 56 | 1017.3 |
| 20260507151232 | 63 | 113 | 0.0 | 5.2 | 0.00 | 0.03 | 0.02 | 54 | 1017.3 |
| 20260507151132 | 63 | 104 | 0.0 | 5.2 | 0.00 | 0.03 | 0.02 | 55 | 1017.3 |
| 20260507151029 | 63 | 119 | 0.0 | 5.2 | 0.00 | 0.03 | 0.02 | 55 | 1017.3 |
| 20260507150929 | 63 | 58 | 0.0 | 5.2 | 0.00 | 0.03 | 0.02 | 54 | 1017.3 |
| 20260507150829 | 63 | 126 | 0.0 | 5.2 | 0.00 | 0.03 | 0.02 | 55 | 1017.3 |
| 20260507150729 | 63 | 117 | 0.0 | 5.2 | 0.00 | 0.03 | 0.02 | 57 | 1017.3 |
| 20260507150631 | 63 | 106 | 0.0 | 5.2 | 0.00 | 0.03 | 0.02 | 56 | 1017.3 |
| 20260507150529 | 63 | 107 | 0.0 | 5.2 | 0.00 | 0.03 | 0.02 | 56 | 1017.4 |
| 20260507150429 | 63 | 107 | 0.0 | 5.2 | 0.00 | 0.03 | 0.02 | 56 | 1017.3 |
| 20260507150329 | 63 | 96 | 0.0 | 5.2 | 0.00 | 0.03 | 0.02 | 57 | 1017.4 |
| 20260507150229 | 63 | 140 | 0.0 | 5.2 | 0.00 | 0.03 | 0.02 | 56 | 1017.4 |
| 20260507150129 | 63 | 94 | 0.0 | 5.2 | 0.00 | 0.03 | 0.02 | 57 | 1017.4 |
| 20260507150028 | 63 | 121 | 0.0 | 6.1 | 0.00 | 0.03 | 0.02 | 55 | 1017.4 |
| 20260507145929 | 63 | 100 | 0.0 | 6.1 | 0.00 | 0.03 | 0.02 | 56 | 1017.3 |
| 20260507145830 | 63 | 104 | 0.0 | 6.1 | 0.00 | 0.03 | 0.02 | 55 | 1017.3 |
| 20260507145729 | 63 | 82 | 0.0 | 6.1 | 0.00 | 0.03 | 0.02 | 56 | 1017.3 |
| 20260507145632 | 63 | 61 | 0.0 | 6.1 | 0.00 | 0.03 | 0.02 | 55 | 1017.4 |
| 20260507145530 | 63 | 136 | 0.0 | 6.1 | 0.00 | 0.03 | 0.02 | 54 | 1017.4 |
| 20260507145432 | 63 | 108 | 0.0 | 6.1 | 0.00 | 0.03 | 0.02 | 56 | 1017.4 |
| 20260507145329 | 63 | 134 | 0.0 | 6.1 | 0.00 | 0.03 | 0.02 | 55 | 1017.4 |
| 20260507145229 | 63 | 97 | 0.0 | 6.1 | 0.00 | 0.03 | 0.02 | 55 | 1017.4 |
| 20260507145132 | 63 | 113 | 0.0 | 6.1 | 0.00 | 0.03 | 0.02 | 57 | 1017.5 |
| 20260507145030 | 63 | 100 | 0.0 | 5.2 | 0.00 | 0.03 | 0.02 | 57 | 1017.4 |
| 20260507144930 | 63 | 54 | 0.0 | 3.5 | 0.00 | 0.03 | 0.02 | 57 | 1017.4 |
| 20260507144830 | 63 | 105 | 0.0 | 3.5 | 0.00 | 0.03 | 0.02 | 56 | 1017.4 |
| 20260507144729 | 63 | 68 | 0.0 | 3.5 | 0.00 | 0.03 | 0.02 | 55 | 1017.4 |
| 20260507144629 | 63 | 101 | 0.0 | 6.1 | 0.00 | 0.03 | 0.02 | 54 | 1017.5 |
| 20260507144526 | 63 | 111 | 0.0 | 6.1 | 0.00 | 0.03 | 0.02 | 54 | 1017.5 |
| 20260507144426 | 63 | 123 | 0.0 | 6.1 | 0.00 | 0.03 | 0.02 | 55 | 1017.5 |
| 20260507144326 | 63 | 124 | 0.9 | 7.8 | 0.00 | 0.03 | 0.02 | 56 | 1017.5 |
| 20260507144225 | 63 | 94 | 0.9 | 7.8 | 0.00 | 0.03 | 0.02 | 55 | 1017.5 |
| 20260507144126 | 63 | 108 | 0.9 | 7.8 | 0.00 | 0.03 | 0.02 | 55 | 1017.5 |
| 20260507144025 | 63 | 142 | 0.9 | 7.8 | 0.00 | 0.03 | 0.02 | 54 | 1017.5 |
| 20260507143925 | 63 | 115 | 0.9 | 7.8 | 0.00 | 0.03 | 0.02 | 57 | 1017.5 |
| 20260507143825 | 63 | 125 | 0.9 | 7.8 | 0.00 | 0.03 | 0.02 | 54 | 1017.5 |
| 20260507143726 | 63 | 108 | 0.9 | 7.8 | 0.00 | 0.03 | 0.02 | 54 | 1017.5 |
| 20260507143627 | 63 | 121 | 0.9 | 7.8 | 0.00 | 0.03 | 0.02 | 55 | 1017.5 |
| 20260507143525 | 63 | 117 | 0.9 | 7.8 | 0.00 | 0.03 | 0.02 | 55 | 1017.5 |
| 20260507143425 | 63 | 90 | 0.9 | 7.8 | 0.00 | 0.03 | 0.02 | 55 | 1017.5 |
| 20260507143331 | 63 | 132 | 0.0 | 6.1 | 0.00 | 0.03 | 0.02 | 55 | 1017.5 |
| 20260507143226 | 63 | 88 | 0.0 | 6.1 | 0.00 | 0.03 | 0.02 | 54 | 1017.4 |
| 20260507143125 | 63 | 72 | 0.0 | 6.1 | 0.00 | 0.03 | 0.02 | 54 | 1017.5 |
| 20260507143026 | 63 | 104 | 0.0 | 6.1 | 0.00 | 0.03 | 0.02 | 54 | 1017.4 |
| 20260507142925 | 63 | 95 | 0.0 | 3.5 | 0.00 | 0.03 | 0.02 | 53 | 1017.4 |
| 20260507142829 | 63 | 116 | 0.0 | 3.5 | 0.00 | 0.03 | 0.02 | 55 | 1017.4 |
| 20260507142725 | 63 | 128 | 0.0 | 3.5 | 0.00 | 0.03 | 0.02 | 55 | 1017.4 |
| 20260507142621 | 63 | 128 | 0.0 | 3.5 | 0.00 | 0.03 | 0.02 | 54 | 1017.4 |
| 20260507142522 | 63 | 109 | 0.0 | 3.5 | 0.00 | 0.03 | 0.02 | 55 | 1017.4 |
| 20260507142421 | 63 | 113 | 0.0 | 0.9 | 0.00 | 0.03 | 0.02 | 53 | 1017.4 |
| 20260507142324 | 63 | 55 | 0.0 | 0.9 | 0.00 | 0.03 | 0.02 | 53 | 1017.5 |
| 20260507142221 | 63 | 109 | 0.0 | 1.7 | 0.00 | 0.03 | 0.02 | 52 | 1017.5 |
| 20260507142124 | 63 | 156 | 0.0 | 1.7 | 0.00 | 0.03 | 0.02 | 51 | 1017.4 |
| 20260507142020 | 63 | 150 | 0.0 | 1.7 | 0.00 | 0.03 | 0.02 | 52 | 1017.5 |
| 20260507141923 | 63 | 78 | 0.0 | 1.7 | 0.00 | 0.03 | 0.02 | 54 | 1017.5 |
| 20260507141821 | 63 | 153 | 0.0 | 1.7 | 0.00 | 0.03 | 0.02 | 53 | 1017.5 |
| 20260507141723 | 63 | 65 | 0.0 | 1.7 | 0.00 | 0.03 | 0.02 | 59 | 1017.5 |
| 20260507141621 | 63 | 88 | 0.0 | 1.7 | 0.00 | 0.03 | 0.02 | 58 | 1017.5 |
| 20260507141522 | 63 | 105 | 0.0 | 1.7 | 0.00 | 0.03 | 0.02 | 59 | 1017.5 |
| 20260507141416 | 63 | 127 | 0.0 | 1.7 | 0.00 | 0.03 | 0.02 | 56 | 1017.6 |
| 20260507141327 | 63 | 151 | 0.0 | 1.7 | 0.00 | 0.03 | 0.02 | 55 | 1017.5 |
| 20260507141213 | 63 | 120 | 0.0 | 0.9 | 0.00 | 0.03 | 0.02 | 54 | 1017.6 |
| 20260507141116 | 63 | 135 | 0.0 | 1.7 | 0.00 | 0.03 | 0.02 | 55 | 1017.6 |
| 20260507141012 | 63 | 112 | 0.0 | 5.2 | 0.00 | 0.03 | 0.02 | 54 | 1017.6 |
| 20260507140909 | 63 | 113 | 0.0 | 5.2 | 0.00 | 0.03 | 0.02 | 55 | 1017.6 |
| 20260507140809 | 63 | 117 | 0.0 | 5.2 | 0.00 | 0.03 | 0.02 | 56 | 1017.6 |
| 20260507140710 | 63 | 53 | 0.0 | 5.2 | 0.00 | 0.03 | 0.02 | 56 | 1017.6 |
| 20260507140612 | 63 | 107 | 0.0 | 5.2 | 0.00 | 0.03 | 0.02 | 53 | 1017.6 |
| 20260507140509 | 63 | 105 | 0.0 | 5.2 | 0.00 | 0.03 | 0.02 | 55 | 1017.6 |
| 20260507140411 | 63 | 59 | 0.0 | 5.2 | 0.00 | 0.03 | 0.02 | 56 | 1017.6 |
| 20260507140317 | 63 | 56 | 0.0 | 5.2 | 0.00 | 0.03 | 0.02 | 55 | 1017.6 |
| 20260507140208 | 63 | 74 | 0.0 | 5.2 | 0.00 | 0.03 | 0.02 | 56 | 1017.6 |
| 20260507140106 | 63 | 137 | 0.9 | 7.0 | 0.00 | 0.03 | 0.02 | 57 | 1017.6 |
| 20260507140006 | 63 | 81 | 0.9 | 8.7 | 0.00 | 0.03 | 0.02 | 55 | 1017.6 |
| 20260507135903 | 63 | 126 | 0.9 | 8.7 | 0.00 | 0.03 | 0.02 | 56 | 1017.6 |
| 20260507135809 | 63 | 121 | 0.9 | 8.7 | 0.00 | 0.03 | 0.02 | 57 | 1017.6 |
| 20260507135704 | 63 | 106 | 0.9 | 8.7 | 0.00 | 0.03 | 0.02 | 56 | 1017.6 |
| 20260507135603 | 63 | 114 | 0.9 | 8.7 | 0.00 | 0.03 | 0.02 | 55 | 1017.7 |
| 20260507135502 | 63 | 61 | 0.9 | 8.7 | 0.00 | 0.03 | 0.02 | 56 | 1017.7 |
| 20260507135401 | 63 | 92 | 0.9 | 8.7 | 0.00 | 0.03 | 0.02 | 60 | 1017.7 |
| 20260507135307 | 63 | 110 | 0.9 | 8.7 | 0.00 | 0.03 | 0.02 | 58 | 1017.7 |
| 20260507135203 | 63 | 76 | 0.9 | 8.7 | 0.00 | 0.03 | 0.02 | 59 | 1017.7 |
| 20260507135104 | 63 | 92 | 0.9 | 8.7 | 0.00 | 0.03 | 0.02 | 57 | 1017.7 |
| 20260507134959 | 63 | 115 | 0.0 | 7.8 | 0.00 | 0.03 | 0.02 | 58 | 1017.7 |
| 20260507134900 | 63 | 92 | 0.0 | 7.0 | 0.00 | 0.03 | 0.02 | 56 | 1017.7 |
| 20260507134756 | 63 | 115 | 0.0 | 7.0 | 0.00 | 0.03 | 0.02 | 55 | 1017.6 |
| 20260507134659 | 63 | 134 | 0.0 | 7.0 | 0.00 | 0.03 | 0.02 | 56 | 1017.7 |
| 20260507134557 | 63 | 49 | 0.0 | 7.0 | 0.00 | 0.03 | 0.02 | 56 | 1017.7 |
| 20260507134500 | 63 | 49 | 0.0 | 7.0 | 0.00 | 0.03 | 0.02 | 56 | 1017.7 |
| 20260507134358 | 63 | 61 | 0.0 | 7.0 | 0.00 | 0.03 | 0.02 | 57 | 1017.7 |
| 20260507134303 | 63 | 78 | 0.0 | 7.0 | 0.00 | 0.03 | 0.02 | 59 | 1017.7 |
| 20260507134157 | 63 | 58 | 0.0 | 7.0 | 0.00 | 0.03 | 0.02 | 57 | 1017.6 |
| 20260507134057 | 63 | 123 | 0.0 | 5.2 | 0.00 | 0.03 | 0.02 | 56 | 1017.7 |
| 20260507133957 | 63 | 119 | 0.0 | 5.2 | 0.00 | 0.03 | 0.02 | 57 | 1017.7 |
| 20260507133856 | 64 | 53 | 0.0 | 1.7 | 0.00 | 0.03 | 0.02 | 57 | 1017.7 |
| 20260507133750 | 64 | 123 | 0.0 | 1.7 | 0.00 | 0.03 | 0.02 | 59 | 1017.7 |
| 20260507133650 | 64 | 82 | 0.0 | 1.7 | 0.00 | 0.03 | 0.02 | 59 | 1017.7 |
| 20260507133549 | 64 | 49 | 0.0 | 1.7 | 0.00 | 0.03 | 0.02 | 56 | 1017.7 |
| 20260507133450 | 64 | 134 | 0.0 | 1.7 | 0.00 | 0.03 | 0.02 | 54 | 1017.7 |
| 20260507133349 | 64 | 98 | 0.0 | 1.7 | 0.00 | 0.03 | 0.02 | 55 | 1017.7 |
| 20260507133249 | 64 | 21 | 0.0 | 1.7 | 0.00 | 0.03 | 0.02 | 55 | 1017.8 |
| 20260507133149 | 64 | 68 | 0.0 | 1.7 | 0.00 | 0.03 | 0.02 | 56 | 1017.8 |
| 20260507133052 | 63 | 63 | 0.0 | 1.7 | 0.00 | 0.03 | 0.02 | 56 | 1017.8 |
| 20260507132949 | 63 | 30 | 0.0 | 3.5 | 0.00 | 0.03 | 0.02 | 55 | 1017.8 |
| 20260507132852 | 63 | 19 | 0.9 | 3.5 | 0.00 | 0.03 | 0.02 | 57 | 1017.8 |
| 20260507132752 | 63 | 53 | 0.0 | 6.1 | 0.00 | 0.03 | 0.02 | 58 | 1017.8 |
| 20260507132649 | 63 | 66 | 0.0 | 6.1 | 0.00 | 0.03 | 0.02 | 59 | 1017.8 |
| 20260507132549 | 63 | 119 | 0.0 | 6.1 | 0.00 | 0.03 | 0.02 | 56 | 1017.8 |
| 20260507132452 | 63 | 109 | 0.0 | 6.1 | 0.00 | 0.03 | 0.02 | 55 | 1017.8 |
| 20260507132352 | 63 | 102 | 0.0 | 6.1 | 0.00 | 0.03 | 0.02 | 55 | 1017.8 |
| 20260507132254 | 63 | 131 | 0.0 | 6.1 | 0.00 | 0.03 | 0.02 | 54 | 1017.8 |
| 20260507132149 | 63 | 107 | 0.0 | 6.1 | 0.00 | 0.03 | 0.02 | 55 | 1017.8 |
| 20260507132049 | 63 | 105 | 0.0 | 6.1 | 0.00 | 0.03 | 0.02 | 56 | 1017.8 |
| 20260507131950 | 63 | 128 | 0.0 | 6.1 | 0.00 | 0.03 | 0.02 | 54 | 1017.8 |
| 20260507131847 | 63 | 125 | 0.0 | 6.1 | 0.00 | 0.03 | 0.02 | 57 | 1017.9 |
| 20260507131748 | 63 | 117 | 0.0 | 5.2 | 0.00 | 0.03 | 0.02 | 56 | 1017.9 |
| 20260507131645 | 63 | 67 | 0.0 | 5.2 | 0.00 | 0.03 | 0.02 | 55 | 1017.9 |
| 20260507131544 | 63 | 87 | 0.0 | 5.2 | 0.00 | 0.03 | 0.02 | 57 | 1017.9 |
| 20260507131445 | 63 | 134 | 0.0 | 5.2 | 0.00 | 0.03 | 0.02 | 55 | 1017.9 |
| 20260507131345 | 63 | 148 | 0.0 | 5.2 | 0.00 | 0.03 | 0.02 | 57 | 1017.9 |
| 20260507131251 | 63 | 99 | 0.0 | 5.2 | 0.00 | 0.03 | 0.02 | 54 | 1017.9 |
| 20260507131146 | 63 | 99 | 0.0 | 5.2 | 0.00 | 0.03 | 0.02 | 54 | 1018.0 |
| 20260507131045 | 63 | 100 | 0.0 | 5.2 | 0.00 | 0.03 | 0.02 | 57 | 1018.0 |
| 20260507130945 | 63 | 74 | 0.0 | 5.2 | 0.00 | 0.03 | 0.02 | 56 | 1017.9 |
| 20260507130845 | 63 | 104 | 0.0 | 5.2 | 0.00 | 0.03 | 0.02 | 57 | 1017.9 |
| 20260507130749 | 63 | 139 | 0.0 | 3.5 | 0.00 | 0.03 | 0.02 | 55 | 1018.0 |
| 20260507130645 | 63 | 116 | 0.0 | 2.6 | 0.00 | 0.03 | 0.02 | 55 | 1018.0 |
| 20260507130545 | 63 | 86 | 0.0 | 2.6 | 0.00 | 0.03 | 0.02 | 57 | 1018.0 |
| 20260507130445 | 63 | 119 | 0.0 | 2.6 | 0.00 | 0.03 | 0.02 | 56 | 1018.0 |
| 20260507130350 | 63 | 102 | 0.0 | 2.6 | 0.00 | 0.03 | 0.02 | 56 | 1018.0 |
| 20260507130245 | 63 | 127 | 0.0 | 1.7 | 0.00 | 0.03 | 0.02 | 55 | 1018.0 |
| 20260507130151 | 63 | 80 | 0.0 | 0.9 | 0.00 | 0.03 | 0.02 | 58 | 1018.0 |
| 20260507130048 | 63 | 79 | 0.0 | 0.9 | 0.00 | 0.03 | 0.02 | 59 | 1018.0 |
| 20260507125942 | 63 | 109 | 0.0 | 0.9 | 0.00 | 0.03 | 0.02 | 58 | 1018.0 |
| 20260507125843 | 63 | 132 | 0.0 | 0.9 | 0.00 | 0.03 | 0.02 | 58 | 1018.0 |
| 20260507125743 | 63 | 81 | 0.0 | 0.9 | 0.00 | 0.03 | 0.02 | 57 | 1018.0 |
| 20260507125640 | 63 | 105 | 0.0 | 0.9 | 0.00 | 0.03 | 0.02 | 58 | 1018.0 |
| 20260507125543 | 63 | 120 | 0.0 | 0.9 | 0.00 | 0.03 | 0.02 | 59 | 1018.0 |
| 20260507125514 | 63 | 103 | 0.0 | 0.9 | 0.00 | 0.03 | 0.02 | 58 | 1018.0 |
| 20260507125440 | 63 | 103 | 0.0 | 0.9 | 0.00 | 0.03 | 0.02 | 58 | 1018.0 |
| 20260507125343 | 63 | 86 | 0.0 | 0.9 | 0.00 | 0.03 | 0.02 | 57 | 1018.0 |
| 20260507125244 | 63 | 55 | 0.0 | 0.9 | 0.00 | 0.03 | 0.02 | 56 | 1018.0 |
| 20260507125142 | 63 | 153 | 0.0 | 0.9 | 0.00 | 0.03 | 0.02 | 57 | 1018.0 |
| 20260507125041 | 63 | 99 | 0.0 | 0.9 | 0.00 | 0.03 | 0.02 | 57 | 1018.1 |
| 20260507124941 | 63 | 120 | 0.0 | 0.9 | 0.00 | 0.03 | 0.02 | 59 | 1018.1 |
| 20260507124841 | 63 | 125 | 0.0 | 0.0 | 0.00 | 0.03 | 0.02 | 60 | 1018.1 |
| 20260507124735 | 63 | 121 | 0.0 | 0.0 | 0.00 | 0.03 | 0.02 | 57 | 1018.0 |
| 20260507124636 | 63 | 90 | 0.0 | 0.0 | 0.00 | 0.03 | 0.02 | 56 | 1018.0 |
| 20260507124532 | 63 | 65 | 0.0 | 0.0 | 0.00 | 0.03 | 0.02 | 57 | 1018.0 |
| 20260507124513 | 63 | 103 | 0.0 | 0.9 | 0.00 | 0.03 | 0.02 | 58 | 1018.1 |
| 20260507124433 | 63 | 99 | 0.0 | 0.0 | 0.00 | 0.03 | 0.02 | 57 | 1018.0 |
| 20260507124411 | 63 | 100 | 0.0 | 3.5 | 0.00 | 0.03 | 0.02 | 56 | 1018.0 |
| 20260507124333 | 63 | 103 | 0.0 | 0.9 | 0.00 | 0.03 | 0.02 | 58 | 1018.1 |
| 20260507124233 | 63 | 100 | 0.0 | 3.5 | 0.00 | 0.03 | 0.02 | 56 | 1018.0 |
| 20260507124134 | 63 | 101 | 0.0 | 3.5 | 0.00 | 0.03 | 0.02 | 57 | 1018.0 |
| 20260507124035 | 63 | 97 | 0.0 | 3.5 | 0.00 | 0.03 | 0.02 | 56 | 1018.1 |
| 20260507123935 | 63 | 63 | 0.0 | 6.1 | 0.00 | 0.03 | 0.02 | 57 | 1018.1 |
| 20260507123910 | 63 | 132 | 0.0 | 6.1 | 0.00 | 0.03 | 0.02 | 58 | 1018.1 |
| 20260507123833 | 63 | 80 | 0.0 | 6.1 | 0.00 | 0.03 | 0.02 | 59 | 1018.1 |
| 20260507123732 | 63 | 132 | 0.0 | 6.1 | 0.00 | 0.03 | 0.02 | 58 | 1018.1 |
| 20260507123632 | 63 | 113 | 0.0 | 6.1 | 0.00 | 0.03 | 0.02 | 57 | 1018.1 |
| 20260507123529 | 63 | 99 | 0.0 | 6.1 | 0.00 | 0.03 | 0.02 | 58 | 1018.1 |
| 20260507123427 | 63 | 109 | 0.0 | 6.1 | 0.00 | 0.03 | 0.02 | 59 | 1018.1 |
| 20260507123330 | 63 | 113 | 0.0 | 6.1 | 0.00 | 0.03 | 0.02 | 59 | 1018.0 |
| 20260507123228 | 63 | 123 | 0.0 | 6.1 | 0.00 | 0.03 | 0.02 | 58 | 1018.1 |
| 20260507123128 | 63 | 96 | 0.0 | 6.1 | 0.00 | 0.03 | 0.02 | 60 | 1018.1 |
| 20260507123020 | 62 | 86 | 0.0 | 6.1 | 0.00 | 0.03 | 0.02 | 60 | 1018.1 |
| 20260507122922 | 62 | 119 | 0.0 | 2.6 | 0.00 | 0.03 | 0.02 | 59 | 1018.1 |
| 20260507122821 | 62 | 112 | 0.0 | 5.2 | 0.00 | 0.03 | 0.02 | 60 | 1018.1 |
| 20260507122718 | 62 | 112 | 0.0 | 5.2 | 0.00 | 0.03 | 0.02 | 63 | 1018.1 |
| 20260507122618 | 62 | 111 | 0.0 | 5.2 | 0.00 | 0.03 | 0.02 | 60 | 1018.1 |
| 20260507122520 | 62 | 138 | 0.0 | 5.2 | 0.00 | 0.03 | 0.02 | 59 | 1018.1 |
| 20260507122416 | 62 | 129 | 0.0 | 5.2 | 0.00 | 0.03 | 0.02 | 61 | 1018.1 |
| 20260507122318 | 62 | 131 | 0.0 | 7.0 | 0.00 | 0.03 | 0.02 | 60 | 1018.1 |
| 20260507122218 | 62 | 101 | 0.0 | 7.0 | 0.00 | 0.03 | 0.02 | 60 | 1018.1 |
| 20260507122116 | 62 | 139 | 0.0 | 7.0 | 0.00 | 0.03 | 0.02 | 60 | 1018.2 |
| 20260507122008 | 62 | 109 | 0.0 | 7.0 | 0.00 | 0.03 | 0.02 | 59 | 1018.2 |
| 20260507121907 | 62 | 110 | 0.0 | 7.0 | 0.00 | 0.03 | 0.02 | 63 | 1018.1 |
| 20260507121807 | 62 | 98 | 0.0 | 7.0 | 0.00 | 0.03 | 0.02 | 60 | 1018.1 |
| 20260507121705 | 62 | 144 | 0.0 | 7.0 | 0.00 | 0.03 | 0.02 | 61 | 1018.1 |
| 20260507121604 | 62 | 106 | 0.0 | 7.0 | 0.00 | 0.03 | 0.02 | 63 | 1018.2 |
| 20260507121504 | 62 | 109 | 0.0 | 7.0 | 0.00 | 0.03 | 0.02 | 62 | 1018.2 |
| 20260507121502 | 62 | 109 | 0.0 | 7.0 | 0.00 | 0.03 | 0.02 | 62 | 1018.2 |
| 20260507121403 | 62 | 115 | 0.0 | 7.0 | 0.00 | 0.03 | 0.02 | 61 | 1018.1 |
| 20260507121302 | 62 | 135 | 0.0 | 4.3 | 0.00 | 0.03 | 0.02 | 64 | 1018.1 |
| 20260507121201 | 62 | 109 | 0.0 | 5.2 | 0.00 | 0.03 | 0.02 | 63 | 1018.2 |
| 20260507121103 | 62 | 88 | 0.0 | 5.2 | 0.00 | 0.03 | 0.02 | 65 | 1018.1 |
| 20260507121000 | 62 | 111 | 0.0 | 5.2 | 0.00 | 0.03 | 0.02 | 63 | 1018.1 |
| 20260507120901 | 62 | 111 | 0.0 | 5.2 | 0.00 | 0.03 | 0.02 | 64 | 1018.1 |
| 20260507120756 | 62 | 111 | 0.0 | 5.2 | 0.00 | 0.03 | 0.02 | 63 | 1018.1 |
| 20260507120657 | 62 | 108 | 0.0 | 5.2 | 0.00 | 0.03 | 0.02 | 63 | 1018.1 |
| 20260507120557 | 62 | 148 | 0.0 | 5.2 | 0.00 | 0.03 | 0.02 | 64 | 1018.1 |
| 20260507120458 | 62 | 102 | 0.0 | 5.2 | 0.00 | 0.03 | 0.02 | 64 | 1018.1 |
| 20260507120351 | 62 | 146 | 0.0 | 5.2 | 0.00 | 0.03 | 0.02 | 63 | 1018.0 |
| 20260507120253 | 62 | 137 | 0.0 | 5.2 | 0.00 | 0.03 | 0.02 | 64 | 1018.1 |
| 20260507120151 | 62 | 134 | 0.0 | 0.0 | 0.00 | 0.03 | 0.02 | 63 | 1018.1 |
| 20260507120053 | 62 | 121 | 0.0 | 0.0 | 0.00 | 0.03 | 0.02 | 63 | 1018.1 |
| 20260507115951 | 62 | 123 | 0.0 | 0.0 | 0.00 | 0.03 | 0.02 | 64 | 1018.1 |
| 20260507115847 | 62 | 128 | 0.0 | 0.0 | 0.00 | 0.03 | 0.02 | 63 | 1018.1 |
| 20260507115749 | 62 | 63 | 0.0 | 0.9 | 0.00 | 0.03 | 0.02 | 60 | 1018.1 |
| 20260507115645 | 62 | 59 | 0.0 | 0.9 | 0.00 | 0.03 | 0.02 | 60 | 1018.1 |
| 20260507115440 | 62 | 68 | 0.0 | 6.1 | 0.00 | 0.03 | 0.02 | 62 | 1018.1 |
| 20260507115337 | 62 | 80 | 0.0 | 6.1 | 0.00 | 0.03 | 0.02 | 63 | 1018.1 |
| 20260507115237 | 62 | 66 | 0.0 | 6.1 | 0.00 | 0.03 | 0.02 | 64 | 1018.2 |
| 20260507115039 | 62 | 126 | 0.0 | 6.1 | 0.00 | 0.03 | 0.02 | 66 | 1018.1 |
| 20260507114932 | 62 | 133 | 0.0 | 6.1 | 0.00 | 0.03 | 0.02 | 66 | 1018.1 |
| 20260507114833 | 62 | 119 | 0.0 | 6.1 | 0.00 | 0.03 | 0.02 | 63 | 1018.1 |
| 20260507114731 | 62 | 115 | 0.0 | 6.1 | 0.00 | 0.03 | 0.02 | 63 | 1018.1 |
| 20260507114630 | 62 | 121 | 0.0 | 6.1 | 0.00 | 0.03 | 0.02 | 65 | 1018.1 |
| 20260507114532 | 62 | 117 | 0.0 | 6.1 | 0.00 | 0.03 | 0.02 | 64 | 1018.1 |
| 20260507114427 | 62 | 128 | 0.0 | 3.5 | 0.00 | 0.03 | 0.02 | 65 | 1018.1 |
| 20260507114327 | 62 | 126 | 0.0 | 3.5 | 0.00 | 0.03 | 0.02 | 66 | 1018.1 |
| 20260507114227 | 62 | 109 | 0.0 | 3.5 | 0.00 | 0.03 | 0.02 | 65 | 1018.1 |
| 20260507114125 | 62 | 105 | 0.0 | 3.5 | 0.00 | 0.03 | 0.02 | 63 | 1018.1 |
| 20260507114024 | 61 | 137 | 0.0 | 3.5 | 0.00 | 0.03 | 0.02 | 63 | 1018.1 |
| 20260507113923 | 61 | 100 | 0.0 | 3.5 | 0.00 | 0.03 | 0.02 | 64 | 1018.1 |
| 20260507113819 | 61 | 99 | 0.0 | 3.5 | 0.00 | 0.03 | 0.02 | 64 | 1018.2 |
| 20260507113720 | 61 | 98 | 0.0 | 3.5 | 0.00 | 0.03 | 0.02 | 66 | 1018.2 |
| 20260507113619 | 61 | 102 | 0.0 | 2.6 | 0.00 | 0.03 | 0.02 | 65 | 1018.2 |
| 20260507113522 | 61 | 130 | 0.0 | 2.6 | 0.00 | 0.03 | 0.02 | 66 | 1018.2 |
| 20260507113420 | 61 | 130 | 0.0 | 2.6 | 0.00 | 0.03 | 0.02 | 68 | 1018.2 |
| 20260507113317 | 61 | 117 | 0.0 | 2.6 | 0.00 | 0.03 | 0.02 | 68 | 1018.3 |
| 20260507113217 | 61 | 136 | 0.0 | 0.9 | 0.00 | 0.03 | 0.02 | 68 | 1018.3 |
| 20260507113115 | 61 | 53 | 0.0 | 0.9 | 0.00 | 0.03 | 0.02 | 68 | 1018.3 |
| 20260507113016 | 61 | 109 | 0.0 | 0.9 | 0.00 | 0.03 | 0.02 | 101.8 | |
| 20260507112909 | 61 | 169 | 0.0 | 0.0 | 0.00 | 0.03 | 0.02 | 67 | 1018.3 |
| 20260507112810 | 61 | 59 | 0.0 | 0.0 | 0.00 | 0.03 | 0.02 | 67 | 1018.3 |
| 20260507112708 | 61 | 109 | 0.0 | 0.0 | 0.00 | 0.03 | 0.02 | 69 | 1018.3 |
| 20260507112607 | 61 | 107 | 0.0 | 0.0 | 0.00 | 0.03 | 0.02 | 69 | 1018.3 |
| 20260507112509 | 61 | 116 | 0.0 | 0.0 | 0.00 | 0.03 | 0.02 | 71 | 1018.5 |
| 20260507112405 | 61 | 85 | 0.0 | 0.0 | 0.00 | 0.03 | 0.02 | 71 | 1018.3 |
| 20260507112307 | 60 | 119 | 0.0 | 0.0 | 0.00 | 0.03 | 0.02 | 68 | 1018.3 |
| 20260507112208 | 60 | 28 | 0.0 | 1.7 | 0.00 | 0.03 | 0.02 | 67 | 1018.3 |
| 20260507112103 | 60 | 33 | 0.0 | 1.7 | 0.00 | 0.03 | 0.02 | 70 | 1018.5 |
| 20260507112002 | 60 | 65 | 0.0 | 6.1 | 0.00 | 0.03 | 0.02 | 70 | 1018.3 |
| 20260507111900 | 60 | 105 | 0.0 | 6.1 | 0.00 | 0.03 | 0.02 | 71 | 1018.5 |
| 20260507111802 | 60 | 67 | 0.0 | 6.1 | 0.00 | 0.03 | 0.02 | 67 | 1018.3 |
| 20260507111702 | 60 | 68 | 0.0 | 6.1 | 0.00 | 0.03 | 0.02 | 69 | 1018.5 |
| 20260507111555 | 60 | 88 | 0.0 | 6.1 | 0.00 | 0.03 | 0.02 | 72 | 1018.3 |
| 20260507111459 | 60 | 111 | 0.0 | 6.1 | 0.00 | 0.03 | 0.02 | 70 | 1018.5 |
| 20260507111358 | 60 | 142 | 0.0 | 6.1 | 0.00 | 0.03 | 0.02 | 71 | 1018.3 |
| 20260507111253 | 60 | 46 | 0.0 | 6.1 | 0.00 | 0.03 | 0.02 | 70 | 1018.5 |
| 20260507111155 | 60 | 135 | 0.0 | 6.1 | 0.00 | 0.03 | 0.02 | 70 | 1018.5 |
| 20260507111054 | 60 | 83 | 0.0 | 6.1 | 0.00 | 0.03 | 0.02 | 70 | 1018.5 |
| 20260507110951 | 60 | 119 | 0.0 | 5.2 | 0.00 | 0.03 | 0.02 | 71 | 1018.5 |
| 20260507110848 | 59 | 107 | 0.0 | 5.2 | 0.00 | 0.03 | 0.02 | 70 | 1018.5 |
| 20260507110749 | 59 | 51 | 0.0 | 3.5 | 0.00 | 0.03 | 0.02 | 71 | 1018.5 |
| 20260507110649 | 59 | 131 | 0.0 | 3.5 | 0.00 | 0.03 | 0.02 | 72 | 1018.5 |
| 20260507110548 | 59 | 49 | 0.0 | 3.5 | 0.00 | 0.03 | 0.02 | 71 | 1018.6 |
| 20260507110446 | 59 | 112 | 0.0 | 3.5 | 0.00 | 0.03 | 0.02 | 71 | 1018.5 |
| 20260507110339 | 59 | 119 | 0.0 | 3.5 | 0.00 | 0.03 | 0.02 | 71 | 1018.5 |
| 20260507110240 | 59 | 111 | 0.0 | 0.0 | 0.00 | 0.03 | 0.02 | 70 | 1018.5 |
| 20260507110137 | 59 | 94 | 0.0 | 0.0 | 0.00 | 0.03 | 0.02 | 71 | 1018.5 |
| 20260507110037 | 59 | 104 | 0.0 | 0.0 | 0.00 | 0.03 | 0.02 | 71 | 1018.5 |
| 20260507105939 | 60 | 109 | 0.0 | 0.9 | 0.00 | 0.03 | 0.02 | 70 | 1018.5 |
| 20260507105837 | 60 | 113 | 0.0 | 0.9 | 0.00 | 0.03 | 0.02 | 71 | 1018.5 |
| 20260507105735 | 60 | 96 | 0.0 | 3.5 | 0.00 | 0.03 | 0.02 | 69 | 1018.5 |
| 20260507105640 | 60 | 120 | 0.0 | 3.5 | 0.00 | 0.03 | 0.02 | 70 | 1018.5 |
| 20260507105531 | 60 | 62 | 0.0 | 3.5 | 0.00 | 0.03 | 0.02 | 70 | 1018.5 |
| 20260507105433 | 60 | 103 | 0.0 | 3.5 | 0.00 | 0.03 | 0.02 | 71 | 1018.5 |
| 20260507105327 | 60 | 120 | 0.0 | 3.5 | 0.00 | 0.03 | 0.02 | 70 | 1018.5 |
| 20260507105228 | 60 | 111 | 0.0 | 3.5 | 0.00 | 0.03 | 0.02 | 70 | 1018.5 |
| 20260507105128 | 60 | 111 | 0.0 | 3.5 | 0.00 | 0.03 | 0.02 | 72 | 1018.5 |
| 20260507105025 | 60 | 101 | 0.9 | 7.8 | 0.00 | 0.03 | 0.02 | 73 | 1018.5 |
| 20260507104924 | 60 | 127 | 0.9 | 7.8 | 0.00 | 0.03 | 0.02 | 73 | 1018.5 |
| 20260507104824 | 60 | 91 | 0.9 | 7.8 | 0.00 | 0.03 | 0.02 | 73 | 1018.5 |
| 20260507104723 | 60 | 129 | 0.9 | 7.8 | 0.00 | 0.03 | 0.02 | 72 | 1018.5 |
| 20260507104621 | 60 | 117 | 0.9 | 7.8 | 0.00 | 0.03 | 0.02 | 72 | 1018.5 |
| 20260507104521 | 60 | 117 | 0.9 | 7.8 | 0.00 | 0.03 | 0.02 | 71 | 1018.5 |
| 20260507104421 | 60 | 96 | 0.9 | 7.8 | 0.00 | 0.03 | 0.02 | 71 | 1018.5 |
| 20260507104315 | 60 | 71 | 0.9 | 7.8 | 0.00 | 0.03 | 0.02 | 73 | 1018.5 |
| 20260507104212 | 60 | 135 | 0.9 | 7.8 | 0.00 | 0.03 | 0.02 | 70 | 1018.5 |
| 20260507104113 | 60 | 92 | 1.7 | 7.8 | 0.00 | 0.03 | 0.02 | 71 | 1018.5 |
| 20260507104013 | 60 | 107 | 1.7 | 7.0 | 0.00 | 0.03 | 0.02 | 72 | 1018.5 |
| 20260507103916 | 60 | 74 | 1.7 | 7.0 | 0.00 | 0.03 | 0.02 | 72 | 1018.5 |
| 20260507103807 | 60 | 114 | 1.7 | 7.0 | 0.00 | 0.03 | 0.02 | 72 | 1018.3 |
| 20260507103704 | 60 | 114 | 0.9 | 7.0 | 0.00 | 0.03 | 0.02 | 73 | 1018.5 |
| 20260507103605 | 61 | 94 | 0.9 | 7.0 | 0.00 | 0.03 | 0.02 | 74 | 1018.3 |
| 20260507103505 | 60 | 126 | 0.9 | 5.2 | 0.00 | 0.03 | 0.02 | 74 | 1018.3 |
| 20260507103403 | 60 | 131 | 0.9 | 5.2 | 0.00 | 0.03 | 0.02 | 72 | 1018.5 |
| 20260507103302 | 60 | 109 | 0.9 | 5.2 | 0.00 | 0.03 | 0.02 | 72 | 1018.5 |
| 20260507103203 | 60 | 88 | 0.0 | 5.2 | 0.00 | 0.03 | 0.02 | 71 | 1018.5 |
| 20260507103105 | 60 | 105 | 0.0 | 5.2 | 0.00 | 0.03 | 0.02 | 72 | 1018.5 |
| 20260507103002 | 60 | 129 | 0.0 | 3.5 | 0.00 | 0.03 | 0.02 | 71 | 1018.5 |
| 20260507102903 | 61 | 111 | 0.0 | 3.5 | 0.00 | 0.03 | 0.02 | 70 | 1018.5 |
| 20260507102757 | 61 | 136 | 0.0 | 3.5 | 0.00 | 0.03 | 0.02 | 71 | 1018.5 |
| 20260507102657 | 61 | 131 | 0.0 | 3.5 | 0.00 | 0.03 | 0.02 | 70 | 1018.5 |
| 20260507102554 | 61 | 80 | 0.0 | 1.7 | 0.00 | 0.03 | 0.02 | 71 | 1018.3 |
| 20260507102454 | 61 | 69 | 0.0 | 1.7 | 0.00 | 0.03 | 0.02 | 73 | 1018.3 |
| 20260507102354 | 61 | 109 | 0.0 | 1.7 | 0.00 | 0.03 | 0.02 | 71 | 1018.3 |
| 20260507102258 | 61 | 74 | 0.0 | 5.2 | 0.00 | 0.03 | 0.02 | 73 | 1018.5 |
| 20260507102155 | 60 | 80 | 0.9 | 6.1 | 0.00 | 0.03 | 0.02 | 73 | 1018.5 |
| 20260507102053 | 60 | 128 | 0.9 | 7.8 | 0.00 | 0.03 | 0.02 | 71 | 1018.5 |
| 20260507101948 | 60 | 128 | 1.7 | 8.7 | 0.00 | 0.03 | 0.02 | 72 | 1018.5 |
| 20260507101852 | 60 | 103 | 1.7 | 8.7 | 0.00 | 0.03 | 0.02 | 74 | 1018.5 |
| 20260507101748 | 60 | 133 | 1.7 | 8.7 | 0.00 | 0.03 | 0.02 | 72 | 1018.3 |
| 20260507101647 | 60 | 78 | 1.7 | 8.7 | 0.00 | 0.03 | 0.02 | 72 | 1018.5 |
| 20260507101547 | 60 | 137 | 1.7 | 8.7 | 0.00 | 0.03 | 0.02 | 75 | 1018.3 |
| 20260507101448 | 60 | 128 | 1.7 | 8.7 | 0.00 | 0.00 | 0.00 | ||
| 20260507101445 | 60 | 128 | 1.7 | 8.7 | 0.00 | 0.03 | 0.02 | 71 | 1018.3 |
| 20260507101345 | 60 | 146 | 1.7 | 8.7 | 0.00 | 0.03 | 0.02 | 72 | 1018.5 |
| 20260507101236 | 60 | 103 | 1.7 | 8.7 | 0.00 | 0.03 | 0.02 | 71 | 1018.3 |
| 20260507101137 | 60 | 140 | 1.7 | 8.7 | 0.00 | 0.03 | 0.02 | 72 | 1018.5 |
| 20260507101037 | 60 | 148 | 0.9 | 8.7 | 0.00 | 0.03 | 0.02 | 71 | 1018.5 |
| 20260507100937 | 60 | 136 | 0.9 | 7.8 | 0.00 | 0.03 | 0.02 | 73 | 1018.3 |
| 20260507100835 | 60 | 71 | 0.0 | 5.2 | 0.00 | 0.03 | 0.02 | 72 | 1018.3 |
| 20260507100730 | 60 | 106 | 0.0 | 4.3 | 0.00 | 0.03 | 0.02 | 72 | 1018.5 |
| 20260507100630 | 60 | 82 | 0.0 | 4.3 | 0.00 | 0.03 | 0.02 | 72 | 1018.5 |
| 20260507100532 | 60 | 153 | 0.0 | 4.3 | 0.00 | 0.03 | 0.02 | 72 | 1018.5 |
| 20260507100432 | 60 | 161 | 0.0 | 4.3 | 0.00 | 0.03 | 0.02 | 71 | 1018.5 |
| 20260507100331 | 60 | 91 | 0.0 | 6.1 | 0.00 | 0.03 | 0.02 | 70 | 1018.6 |
| 20260507100229 | 60 | 168 | 0.0 | 6.1 | 0.00 | 0.03 | 0.02 | 72 | 1018.6 |
| 20260507100123 | 60 | 136 | 0.0 | 6.1 | 0.00 | 0.03 | 0.02 | 74 | 1018.6 |
| 20260507100026 | 60 | 138 | 0.0 | 6.1 | 0.00 | 0.03 | 0.02 | 75 | 1018.6 |
| 20260507095923 | 60 | 99 | 0.0 | 6.1 | 0.00 | 0.03 | 0.02 | 73 | 1018.5 |
| 20260507095829 | 59 | 156 | 0.0 | 6.1 | 0.00 | 0.03 | 0.02 | 72 | 1018.5 |
| 20260507095717 | 59 | 156 | 0.0 | 6.1 | 0.00 | 0.03 | 0.02 | 72 | 1018.5 |
| 20260507095623 | 59 | 181 | 0.0 | 6.1 | 0.00 | 0.03 | 0.02 | 72 | 1018.6 |
| 20260507095517 | 59 | 136 | 0.9 | 6.1 | 0.00 | 0.03 | 0.02 | 73 | 1018.6 |
| 20260507095415 | 59 | 99 | 0.0 | 4.3 | 0.00 | 0.03 | 0.02 | 73 | 1018.6 |
| 20260507095315 | 59 | 164 | 0.9 | 4.3 | 0.00 | 0.03 | 0.02 | 73 | 1018.6 |
| 20260507095215 | 59 | 175 | 0.9 | 7.0 | 0.00 | 0.03 | 0.02 | 72 | 1018.6 |
| 20260507095116 | 59 | 159 | 0.9 | 7.0 | 0.00 | 0.03 | 0.02 | 73 | 1018.6 |
| 20260507095012 | 59 | 147 | 0.9 | 7.0 | 0.00 | 0.03 | 0.02 | 73 | 1018.6 |
| 20260507094909 | 59 | 146 | 0.9 | 7.0 | 0.00 | 0.03 | 0.02 | 74 | 1018.6 |
| 20260507094810 | 59 | 130 | 0.9 | 7.0 | 0.00 | 0.03 | 0.02 | 75 | 1018.6 |
| 20260507094709 | 59 | 130 | 0.9 | 7.0 | 0.00 | 0.03 | 0.02 | 74 | 1018.6 |
| 20260507094615 | 59 | 134 | 0.9 | 7.0 | 0.00 | 0.03 | 0.02 | 75 | 1018.6 |
| 20260507094507 | 59 | 120 | 0.9 | 7.0 | 0.00 | 0.03 | 0.02 | 74 | 1018.5 |
| 20260507094409 | 59 | 147 | 0.9 | 7.0 | 0.00 | 0.03 | 0.02 | 73 | 1018.5 |
| 20260507094307 | 59 | 134 | 0.0 | 7.0 | 0.00 | 0.03 | 0.02 | 74 | 1018.6 |
| 20260507094207 | 59 | 138 | 0.0 | 5.2 | 0.00 | 0.03 | 0.02 | 74 | 1018.5 |
| 20260507094103 | 59 | 133 | 0.0 | 4.3 | 0.00 | 0.03 | 0.02 | 74 | 1018.6 |
| 20260507094003 | 59 | 142 | 0.0 | 3.5 | 0.00 | 0.03 | 0.02 | 72 | 1018.6 |
| 20260507093904 | 59 | 144 | 0.0 | 3.5 | 0.00 | 0.03 | 0.02 | 72 | 1018.6 |
| 20260507093802 | 59 | 109 | 0.0 | 3.5 | 0.00 | 0.03 | 0.02 | 72 | 1018.6 |
| 20260507093701 | 60 | 109 | 0.0 | 3.5 | 0.00 | 0.03 | 0.02 | 72 | 1018.5 |
| 20260507093602 | 60 | 140 | 0.0 | 3.5 | 0.00 | 0.03 | 0.02 | 72 | 1018.6 |
| 20260507093501 | 60 | 106 | 0.0 | 3.5 | 0.00 | 0.03 | 0.02 | 71 | 1018.6 |
| 20260507093403 | 60 | 107 | 0.0 | 3.5 | 0.00 | 0.03 | 0.02 | 73 | 1018.6 |
| 20260507093301 | 60 | 140 | 0.0 | 3.5 | 0.00 | 0.03 | 0.02 | 73 | 1018.6 |
| 20260507093202 | 60 | 159 | 0.0 | 3.5 | 0.00 | 0.03 | 0.02 | 72 | 1018.6 |
| 20260507093107 | 60 | 134 | 0.0 | 3.5 | 0.00 | 0.03 | 0.02 | 72 | 1018.6 |
| 20260507093001 | 60 | 114 | 0.9 | 5.2 | 0.00 | 0.03 | 0.02 | 71 | 1018.6 |
| 20260507092900 | 60 | 99 | 0.9 | 5.2 | 0.00 | 0.03 | 0.02 | 71 | 1018.6 |
| 20260507092801 | 60 | 106 | 0.9 | 5.2 | 0.00 | 0.03 | 0.02 | 71 | 1018.6 |
| 20260507092701 | 60 | 107 | 0.9 | 6.1 | 0.00 | 0.03 | 0.02 | 70 | 1018.6 |
| 20260507092607 | 60 | 116 | 0.9 | 6.1 | 0.00 | 0.03 | 0.02 | 70 | 1018.6 |
| 20260507092502 | 60 | 97 | 0.9 | 6.1 | 0.00 | 0.03 | 0.02 | 70 | 1018.6 |
| 20260507092356 | 60 | 98 | 0.9 | 6.1 | 0.00 | 0.03 | 0.02 | 70 | 1018.6 |
| 20260507092259 | 60 | 138 | 0.9 | 6.1 | 0.00 | 0.03 | 0.02 | 70 | 1018.6 |
| 20260507092155 | 60 | 110 | 0.9 | 6.1 | 0.00 | 0.03 | 0.02 | 71 | 1018.6 |
| 20260507092101 | 60 | 117 | 0.9 | 6.1 | 0.00 | 0.03 | 0.02 | 72 | 1018.6 |
| 20260507091949 | 60 | 92 | 0.9 | 6.1 | 0.00 | 0.03 | 0.02 | 71 | 1018.6 |
| 20260507091848 | 60 | 127 | 0.9 | 6.1 | 0.00 | 0.03 | 0.02 | 70 | 1018.6 |
| 20260507091749 | 60 | 142 | 0.9 | 5.2 | 0.00 | 0.03 | 0.02 | 71 | 1018.5 |
| 20260507091647 | 60 | 115 | 0.9 | 5.2 | 0.00 | 0.03 | 0.02 | 73 | 1018.6 |
| 20260507091545 | 60 | 144 | 0.9 | 3.5 | 0.00 | 0.03 | 0.02 | 71 | 1018.6 |
| 20260507091438 | 60 | 32 | 0.9 | 3.5 | 0.00 | 0.03 | 0.02 | 71 | 1018.6 |
| 20260507091338 | 60 | 19 | 0.9 | 3.5 | 0.00 | 0.03 | 0.02 | 71 | 1018.6 |
| 20260507091236 | 60 | 92 | 0.9 | 3.5 | 0.00 | 0.03 | 0.02 | 70 | 1018.6 |
| 20260507091135 | 60 | 80 | 0.9 | 3.5 | 0.00 | 0.03 | 0.02 | 70 | 1018.6 |
| 20260507091037 | 60 | 167 | 0.9 | 3.5 | 0.00 | 0.03 | 0.02 | 70 | 1018.6 |
| 20260507090932 | 60 | 106 | 0.9 | 2.6 | 0.00 | 0.03 | 0.02 | 71 | 1018.6 |
| 20260507090836 | 60 | 111 | 0.9 | 2.6 | 0.00 | 0.03 | 0.02 | 71 | 1018.6 |
| 20260507090733 | 60 | 155 | 0.9 | 2.6 | 0.00 | 0.03 | 0.02 | 70 | 1018.6 |
| 20260507090635 | 60 | 155 | 0.9 | 2.6 | 0.00 | 0.03 | 0.02 | 70 | 1018.6 |
| 20260507090531 | 60 | 155 | 0.9 | 3.5 | 0.00 | 0.03 | 0.02 | 71 | 1018.6 |
| 20260507090431 | 60 | 165 | 0.9 | 3.5 | 0.00 | 0.03 | 0.02 | 72 | 1018.6 |
| 20260507090330 | 60 | 148 | 0.9 | 3.5 | 0.00 | 0.03 | 0.02 | 72 | 1018.6 |
| 20260507090231 | 60 | 109 | 0.0 | 3.5 | 0.00 | 0.03 | 0.02 | 72 | 1018.6 |
| 20260507090130 | 59 | 111 | 0.0 | 3.5 | 0.00 | 0.03 | 0.02 | 71 | 1018.6 |
| 20260507090032 | 59 | 46 | 0.0 | 3.5 | 0.00 | 0.03 | 0.02 | 70 | 1018.6 |
| 20260507085930 | 60 | 46 | 0.0 | 3.5 | 0.00 | 0.03 | 0.02 | 70 | 1018.6 |
| 20260507085830 | 59 | 46 | 0.0 | 3.5 | 0.00 | 0.03 | 0.02 | 72 | 1018.6 |
| 20260507085729 | 59 | 83 | 0.0 | 3.5 | 0.00 | 0.03 | 0.02 | 71 | 1018.6 |
| 20260507085631 | 59 | 86 | 0.0 | 3.5 | 0.00 | 0.03 | 0.02 | 71 | 1018.6 |
| 20260507085529 | 59 | 28 | 0.0 | 3.5 | 0.00 | 0.03 | 0.02 | 70 | 1018.6 |
| 20260507085431 | 60 | 40 | 0.0 | 3.5 | 0.00 | 0.03 | 0.02 | 70 | 1018.6 |
| 20260507085327 | 60 | 111 | 0.0 | 3.5 | 0.00 | 0.03 | 0.02 | 70 | 1018.6 |
| 20260507085227 | 60 | 89 | 0.0 | 3.5 | 0.00 | 0.03 | 0.02 | 72 | 1018.6 |
| 20260507085127 | 60 | 96 | 0.0 | 3.5 | 0.00 | 0.03 | 0.02 | 71 | 1018.6 |
| 20260507085024 | 60 | 119 | 0.0 | 3.5 | 0.00 | 0.03 | 0.02 | 72 | 1018.6 |
| 20260507084919 | 59 | 90 | 0.0 | 3.5 | 0.00 | 0.03 | 0.02 | 70 | 1018.5 |
| 20260507084815 | 59 | 67 | 0.0 | 3.5 | 0.00 | 0.03 | 0.02 | 72 | 1018.6 |
| 20260507084713 | 59 | 59 | 0.0 | 3.5 | 0.00 | 0.03 | 0.02 | 71 | 1018.6 |
| 20260507084611 | 59 | 86 | 0.0 | 2.6 | 0.00 | 0.03 | 0.02 | 72 | 1018.5 |
| 20260507084511 | 59 | 109 | 0.0 | 0.0 | 0.00 | 0.03 | 0.02 | 72 | 1018.5 |
| 20260507084411 | 59 | 109 | 0.0 | 4.3 | 0.00 | 0.03 | 0.02 | 71 | 1018.6 |
| 20260507084311 | 59 | 109 | 0.9 | 6.1 | 0.00 | 0.03 | 0.02 | 71 | 1018.5 |
| 20260507084211 | 59 | 109 | 0.9 | 6.1 | 0.00 | 0.03 | 0.02 | 71 | 1018.5 |
| 20260507084109 | 59 | 109 | 0.9 | 6.1 | 0.00 | 0.03 | 0.02 | 70 | 1018.5 |
| 20260507084009 | 59 | 103 | 0.9 | 6.1 | 0.00 | 0.03 | 0.02 | 71 | 1018.5 |
| 20260507083908 | 59 | 109 | 0.9 | 6.1 | 0.00 | 0.03 | 0.02 | 71 | 1018.5 |
| 20260507083809 | 59 | 150 | 0.9 | 6.1 | 0.00 | 0.03 | 0.02 | 72 | 1018.6 |
| 20260507083711 | 59 | 153 | 0.9 | 6.1 | 0.00 | 0.03 | 0.02 | 72 | 1018.6 |
| 20260507083610 | 59 | 150 | 0.9 | 6.1 | 0.00 | 0.03 | 0.02 | 71 | 1018.5 |
| 20260507083507 | 59 | 152 | 0.9 | 6.1 | 0.00 | 0.03 | 0.02 | 72 | 1018.5 |
| 20260507083407 | 59 | 142 | 0.0 | 6.1 | 0.00 | 0.03 | 0.02 | 73 | 1018.5 |
| 20260507083307 | 59 | 103 | 0.0 | 3.5 | 0.00 | 0.03 | 0.02 | 71 | 1018.6 |
| 20260507083204 | 59 | 59 | 0.0 | 3.5 | 0.00 | 0.03 | 0.02 | 70 | 1018.6 |
| 20260507083104 | 59 | 59 | 0.0 | 3.5 | 0.00 | 0.03 | 0.02 | 70 | 1018.6 |
| 20260507083003 | 59 | 59 | 0.0 | 2.6 | 0.00 | 0.03 | 0.02 | 70 | 1018.6 |
| 20260507082901 | 58 | 123 | 0.0 | 2.6 | 0.00 | 0.03 | 0.02 | 71 | 1018.6 |
| 20260507082802 | 58 | 123 | 0.0 | 0.9 | 0.00 | 0.03 | 0.02 | 73 | 1018.6 |
| 20260507082658 | 58 | 123 | 0.0 | 0.9 | 0.00 | 0.03 | 0.02 | 71 | 1018.6 |
| 20260507082557 | 58 | 122 | 0.0 | 0.0 | 0.00 | 0.03 | 0.02 | 71 | 1018.6 |
| 20260507082457 | 58 | 122 | 0.0 | 0.0 | 0.00 | 0.03 | 0.02 | 71 | 1018.6 |
| 20260507082354 | 58 | 86 | 0.0 | 0.0 | 0.00 | 0.03 | 0.02 | 71 | 1018.6 |
| 20260507082254 | 58 | 86 | 0.0 | 0.0 | 0.00 | 0.03 | 0.02 | 71 | 1018.6 |
| 20260507082155 | 58 | 86 | 0.0 | 0.0 | 0.00 | 0.03 | 0.02 | 71 | 1018.6 |
| 20260507082055 | 58 | 86 | 0.0 | 0.0 | 0.00 | 0.03 | 0.02 | 71 | 1018.6 |
| 20260507081954 | 58 | 86 | 0.0 | 0.0 | 0.00 | 0.03 | 0.02 | 72 | 1018.6 |
| 20260507081855 | 58 | 86 | 0.0 | 0.0 | 0.00 | 0.03 | 0.02 | 73 | 1018.6 |
| 20260507081752 | 58 | 81 | 0.0 | 0.0 | 0.00 | 0.03 | 0.02 | 72 | 1018.6 |
| 20260507081653 | 58 | 61 | 0.0 | 0.0 | 0.00 | 0.03 | 0.02 | 73 | 1018.6 |
| 20260507081551 | 58 | 96 | 0.0 | 0.0 | 0.00 | 0.03 | 0.02 | 73 | 1018.6 |
| 20260507081449 | 58 | 128 | 0.0 | 0.0 | 0.00 | 0.03 | 0.02 | 74 | 1018.6 |
| 20260507081348 | 59 | 115 | 0.0 | 0.0 | 0.00 | 0.03 | 0.02 | 72 | 1018.6 |
| 20260507081250 | 59 | 109 | 0.0 | 0.0 | 0.00 | 0.03 | 0.02 | 73 | 1018.6 |
| 20260507081148 | 59 | 145 | 0.0 | 0.0 | 0.00 | 0.03 | 0.02 | 71 | 1018.6 |
| 20260507081049 | 59 | 140 | 0.0 | 0.0 | 0.00 | 0.03 | 0.02 | 70 | 1018.6 |
| 20260507080949 | 58 | 140 | 0.0 | 0.0 | 0.00 | 0.03 | 0.02 | 70 | 1018.6 |
| 20260507080847 | 58 | 141 | 0.0 | 0.0 | 0.00 | 0.03 | 0.02 | 71 | 1018.7 |
| 20260507080747 | 58 | 123 | 0.0 | 0.0 | 0.00 | 0.03 | 0.02 | 71 | 1018.6 |
| 20260507080645 | 58 | 171 | 0.0 | 0.0 | 0.00 | 0.03 | 0.02 | 72 | 1018.7 |
| 20260507080545 | 58 | 171 | 0.0 | 0.0 | 0.00 | 0.03 | 0.02 | 73 | 1018.6 |
| 20260507080445 | 58 | 171 | 0.0 | 0.0 | 0.00 | 0.03 | 0.02 | 73 | 1018.6 |
| 20260507080344 | 58 | 126 | 0.0 | 0.0 | 0.00 | 0.03 | 0.02 | 72 | 1018.6 |
| 20260507080244 | 58 | 126 | 0.0 | 0.0 | 0.00 | 0.03 | 0.02 | 72 | 1018.6 |
| 20260507080144 | 58 | 92 | 0.0 | 0.0 | 0.00 | 0.03 | 0.02 | 71 | 1018.6 |
| 20260507080045 | 58 | 92 | 0.0 | 0.0 | 0.00 | 0.03 | 0.02 | 73 | 1018.6 |
| 20260507075944 | 58 | 142 | 0.0 | 0.0 | 0.00 | 0.03 | 0.02 | 73 | 1018.6 |
| 20260507075847 | 58 | 115 | 0.0 | 0.0 | 0.00 | 0.03 | 0.02 | 73 | 1018.7 |
| 20260507075744 | 58 | 115 | 0.0 | 0.0 | 0.00 | 0.03 | 0.02 | 73 | 1018.7 |
| 20260507075644 | 58 | 115 | 0.0 | 0.0 | 0.00 | 0.03 | 0.02 | 73 | 1018.6 |
| 20260507075544 | 57 | 115 | 0.0 | 0.0 | 0.00 | 0.03 | 0.02 | 73 | 1018.6 |
| 20260507075447 | 57 | 117 | 0.0 | 0.0 | 0.00 | 0.03 | 0.02 | 73 | 1018.7 |
| 20260507075340 | 57 | 94 | 0.0 | 0.0 | 0.00 | 0.03 | 0.02 | 73 | 1018.7 |
| 20260507075240 | 57 | 94 | 0.0 | 0.0 | 0.00 | 0.03 | 0.02 | 74 | 1018.7 |
| 20260507075143 | 57 | 94 | 0.0 | 5.2 | 0.00 | 0.03 | 0.02 | 75 | 1018.7 |
| 20260507075043 | 57 | 109 | 0.0 | 5.2 | 0.00 | 0.03 | 0.02 | 75 | 1018.7 |
| 20260507074943 | 57 | 111 | 0.9 | 5.2 | 0.00 | 0.03 | 0.02 | 75 | 1018.7 |
| 20260507074843 | 57 | 90 | 0.9 | 5.2 | 0.00 | 0.03 | 0.02 | 74 | 1018.7 |
| 20260507074740 | 57 | 94 | 0.9 | 5.2 | 0.00 | 0.03 | 0.02 | 74 | 1018.7 |
| 20260507074642 | 57 | 94 | 0.9 | 5.2 | 0.00 | 0.03 | 0.02 | 75 | 1018.7 |
| 20260507074544 | 57 | 96 | 0.9 | 5.2 | 0.00 | 0.03 | 0.02 | 74 | 1018.7 |
| 20260507074439 | 57 | 110 | 0.9 | 5.2 | 0.00 | 0.03 | 0.02 | 75 | 1018.7 |
| 20260507074343 | 57 | 103 | 0.9 | 5.2 | 0.00 | 0.03 | 0.02 | 76 | 1018.7 |
| 20260507074239 | 57 | 100 | 0.9 | 5.2 | 0.00 | 0.03 | 0.02 | 75 | 1018.6 |
| 20260507074136 | 57 | 171 | 0.0 | 4.3 | 0.00 | 0.03 | 0.02 | 76 | 1018.7 |
| 20260507074033 | 57 | 138 | 0.0 | 4.3 | 0.00 | 0.03 | 0.02 | 76 | 1018.7 |
| 20260507073933 | 57 | 138 | 0.0 | 4.3 | 0.00 | 0.03 | 0.02 | 76 | 1018.6 |
| 20260507073835 | 57 | 55 | 0.0 | 0.0 | 0.00 | 0.03 | 0.02 | 75 | 1018.7 |
| 20260507073733 | 57 | 88 | 0.0 | 0.0 | 0.00 | 0.03 | 0.02 | 75 | 1018.6 |
| 20260507073634 | 57 | 88 | 0.0 | 0.0 | 0.00 | 0.03 | 0.02 | 75 | 1018.7 |
| 20260507073534 | 56 | 88 | 0.0 | 0.0 | 0.00 | 0.03 | 0.02 | 76 | 1018.7 |
| 20260507073435 | 56 | 88 | 0.0 | 0.9 | 0.00 | 0.03 | 0.02 | 76 | 1018.7 |
| 20260507073331 | 56 | 84 | 0.0 | 0.9 | 0.00 | 0.03 | 0.02 | 77 | 1018.7 |
| 20260507073229 | 56 | 108 | 0.0 | 0.9 | 0.00 | 0.03 | 0.02 | 77 | 1018.7 |
| 20260507073132 | 56 | 92 | 0.0 | 0.9 | 0.00 | 0.03 | 0.02 | 77 | 1018.7 |
| 20260507073032 | 56 | 140 | 0.0 | 0.9 | 0.00 | 0.03 | 0.02 | 77 | 1018.7 |
| 20260507072931 | 56 | 140 | 0.0 | 0.9 | 0.00 | 0.03 | 0.02 | 76 | 1018.7 |
| 20260507072828 | 56 | 140 | 0.0 | 0.9 | 0.00 | 0.03 | 0.02 | 77 | 1018.7 |
| 20260507072727 | 56 | 140 | 0.0 | 1.7 | 0.00 | 0.03 | 0.02 | 77 | 1018.7 |
| 20260507072628 | 56 | 140 | 0.0 | 2.6 | 0.00 | 0.03 | 0.02 | 77 | 1018.7 |
| 20260507072529 | 56 | 140 | 0.0 | 3.5 | 0.00 | 0.03 | 0.02 | 77 | 1018.7 |
| 20260507072427 | 56 | 117 | 0.0 | 3.5 | 0.00 | 0.03 | 0.02 | 76 | 1018.7 |
| 20260507072327 | 56 | 128 | 0.0 | 3.5 | 0.00 | 0.03 | 0.02 | 76 | 1018.7 |
| 20260507072223 | 56 | 124 | 0.0 | 3.5 | 0.00 | 0.03 | 0.02 | 76 | 1018.7 |
| 20260507072124 | 56 | 119 | 0.0 | 3.5 | 0.00 | 0.03 | 0.02 | 77 | 1018.7 |
| 20260507072027 | 56 | 144 | 0.0 | 3.5 | 0.00 | 0.03 | 0.02 | 77 | 1018.6 |
| 20260507071925 | 56 | 161 | 0.0 | 3.5 | 0.00 | 0.03 | 0.02 | 77 | 1018.7 |
| 20260507071824 | 56 | 160 | 0.0 | 3.5 | 0.00 | 0.03 | 0.02 | 77 | 1018.7 |
| 20260507071724 | 56 | 138 | 0.0 | 3.5 | 0.00 | 0.03 | 0.02 | 78 | 1018.6 |
| 20260507071624 | 56 | 138 | 0.0 | 3.5 | 0.00 | 0.03 | 0.02 | 77 | 1018.7 |
| 20260507071524 | 56 | 142 | 0.0 | 3.5 | 0.00 | 0.03 | 0.02 | 78 | 1018.7 |
| 20260507071424 | 56 | 144 | 0.0 | 3.5 | 0.00 | 0.03 | 0.02 | 78 | 1018.7 |
| 20260507071325 | 56 | 134 | 0.0 | 0.0 | 0.00 | 0.03 | 0.02 | 78 | 1018.7 |
| 20260507071225 | 56 | 131 | 0.0 | 0.0 | 0.00 | 0.03 | 0.02 | 78 | 1018.7 |
| 20260507071124 | 56 | 155 | 0.0 | 0.0 | 0.00 | 0.03 | 0.02 | 77 | 1018.7 |
| 20260507071025 | 56 | 156 | 0.0 | 0.0 | 0.00 | 0.03 | 0.02 | 77 | 1018.6 |
| 20260507070927 | 56 | 156 | 0.0 | 0.0 | 0.00 | 0.03 | 0.02 | 76 | 1018.6 |
| 20260507070824 | 56 | 156 | 0.0 | 0.0 | 0.00 | 0.03 | 0.02 | 77 | 1018.6 |
| 20260507070725 | 56 | 156 | 0.0 | 0.0 | 0.00 | 0.03 | 0.02 | 78 | 1018.6 |
| 20260507070626 | 56 | 157 | 0.0 | 0.0 | 0.00 | 0.03 | 0.02 | 78 | 1018.6 |
| 20260507070527 | 56 | 160 | 0.0 | 0.0 | 0.00 | 0.03 | 0.02 | 79 | 1018.6 |
| 20260507070424 | 56 | 129 | 0.0 | 0.0 | 0.00 | 0.03 | 0.02 | 79 | 1018.6 |
| 20260507070320 | 56 | 129 | 0.0 | 1.7 | 0.00 | 0.03 | 0.02 | 79 | 1018.7 |
| 20260507070222 | 55 | 114 | 0.0 | 1.7 | 0.00 | 0.03 | 0.02 | 79 | 1018.6 |
| 20260507070120 | 55 | 114 | 0.0 | 1.7 | 0.00 | 0.03 | 0.02 | 78 | 1018.6 |
| 20260507070022 | 55 | 114 | 0.0 | 1.7 | 0.00 | 0.03 | 0.02 | 78 | 1018.6 |
| 20260507065919 | 55 | 114 | 0.0 | 1.7 | 0.00 | 0.03 | 0.02 | 78 | 1018.6 |
| 20260507065813 | 55 | 114 | 0.0 | 1.7 | 0.00 | 0.03 | 0.02 | 80 | 1018.6 |
| 20260507065713 | 55 | 111 | 0.0 | 1.7 | 0.00 | 0.03 | 0.02 | 79 | 1018.6 |
| 20260507065614 | 55 | 111 | 0.0 | 1.7 | 0.00 | 0.03 | 0.02 | 80 | 1018.6 |
| 20260507065512 | 55 | 111 | 0.0 | 1.7 | 0.00 | 0.03 | 0.02 | 80 | 1018.6 |
| 20260507065412 | 55 | 111 | 0.0 | 1.7 | 0.00 | 0.03 | 0.02 | 80 | 1018.6 |
| 20260507065313 | 55 | 108 | 0.0 | 1.7 | 0.00 | 0.03 | 0.02 | 80 | 1018.6 |
| 20260507065213 | 55 | 108 | 0.0 | 1.7 | 0.00 | 0.03 | 0.02 | 80 | 1018.6 |
| 20260507065112 | 55 | 108 | 0.0 | 1.7 | 0.00 | 0.03 | 0.02 | 79 | 1018.5 |
| 20260507065014 | 55 | 108 | 0.0 | 1.7 | 0.00 | 0.03 | 0.02 | 80 | 1018.5 |
| 20260507064913 | 54 | 108 | 0.0 | 1.7 | 0.00 | 0.03 | 0.02 | 80 | 1018.5 |
| 20260507064810 | 54 | 92 | 0.0 | 1.7 | 0.00 | 0.03 | 0.02 | 80 | 1018.5 |
| 20260507064711 | 54 | 65 | 0.0 | 0.0 | 0.00 | 0.03 | 0.02 | 81 | 1018.5 |
| 20260507064604 | 54 | 84 | 0.0 | 0.0 | 0.00 | 0.03 | 0.02 | 81 | 1018.5 |
| 20260507064504 | 54 | 26 | 0.0 | 0.0 | 0.00 | 0.03 | 0.02 | 81 | 1018.5 |
| 20260507064404 | 54 | 100 | 0.0 | 0.0 | 0.00 | 0.03 | 0.02 | 82 | 1018.5 |
| 20260507064308 | 54 | 99 | 0.0 | 0.0 | 0.00 | 0.03 | 0.02 | 82 | 1018.5 |
| 20260507064205 | 54 | 99 | 0.0 | 0.0 | 0.00 | 0.03 | 0.02 | 82 | 1018.5 |
| 20260507064106 | 54 | 99 | 0.0 | 0.0 | 0.00 | 0.03 | 0.02 | 82 | 1018.5 |
| 20260507064005 | 54 | 99 | 0.0 | 0.0 | 0.00 | 0.03 | 0.02 | 83 | 1018.5 |
| 20260507063904 | 54 | 97 | 0.0 | 0.0 | 0.00 | 0.03 | 0.02 | 83 | 1018.5 |
| 20260507063806 | 53 | 96 | 0.0 | 0.0 | 0.00 | 0.03 | 0.02 | 82 | 1018.5 |
| 20260507063704 | 53 | 96 | 0.0 | 0.0 | 0.00 | 0.03 | 0.02 | 83 | 1018.3 |
| 20260507063606 | 53 | 96 | 0.0 | 0.0 | 0.00 | 0.03 | 0.02 | 83 | 1018.5 |
| 20260507063504 | 53 | 120 | 0.0 | 0.0 | 0.00 | 0.03 | 0.02 | 83 | 1018.5 |
| 20260507063407 | 53 | 120 | 0.0 | 0.0 | 0.00 | 0.03 | 0.02 | 83 | 1018.5 |
| 20260507063303 | 53 | 136 | 0.0 | 0.0 | 0.00 | 0.03 | 0.02 | 83 | 1018.3 |
| 20260507063201 | 53 | 136 | 0.0 | 0.0 | 0.00 | 0.03 | 0.02 | 83 | 1018.3 |
| 20260507063102 | 53 | 136 | 0.0 | 0.0 | 0.00 | 0.03 | 0.02 | 83 | 1018.5 |
| 20260507063001 | 53 | 136 | 0.0 | 0.0 | 0.00 | 0.03 | 0.02 | 84 | 1018.5 |
| 20260507062902 | 53 | 136 | 0.0 | 0.0 | 0.00 | 0.03 | 0.02 | 84 | 1018.3 |
| 20260507062804 | 53 | 136 | 0.0 | 0.0 | 0.00 | 0.03 | 0.02 | 85 | 1018.5 |
| 20260507062700 | 53 | 136 | 0.0 | 0.0 | 0.00 | 0.03 | 0.02 | 85 | 1018.5 |
| 20260507062600 | 53 | 136 | 0.0 | 0.0 | 0.00 | 0.03 | 0.02 | 85 | 1018.5 |
| 20260507062501 | 53 | 136 | 0.0 | 0.0 | 0.00 | 0.03 | 0.02 | 86 | 1018.5 |
| 20260507062403 | 52 | 136 | 0.0 | 0.0 | 0.00 | 0.03 | 0.02 | 86 | 1018.3 |
| 20260507062300 | 52 | 136 | 0.0 | 0.0 | 0.00 | 0.03 | 0.02 | 87 | 1018.5 |
| 20260507062200 | 52 | 136 | 0.0 | 0.0 | 0.00 | 0.03 | 0.02 | 86 | 1018.3 |
| 20260507062100 | 52 | 136 | 0.0 | 0.0 | 0.00 | 0.03 | 0.02 | 86 | 1018.5 |
| 20260507062002 | 52 | 136 | 0.0 | 0.0 | 0.00 | 0.03 | 0.02 | 86 | 1018.3 |
| 20260507061900 | 52 | 136 | 0.0 | 0.0 | 0.00 | 0.03 | 0.02 | 86 | 1018.3 |
| 20260507061803 | 51 | 136 | 0.0 | 0.0 | 0.00 | 0.03 | 0.02 | 86 | 1018.3 |
| 20260507061700 | 51 | 136 | 0.0 | 0.0 | 0.00 | 0.03 | 0.02 | 86 | 1018.3 |
| 20260507061559 | 51 | 136 | 0.0 | 0.0 | 0.00 | 0.03 | 0.02 | 86 | 1018.3 |
| 20260507061452 | 51 | 136 | 0.0 | 0.0 | 0.00 | 0.03 | 0.02 | 87 | 1018.3 |
| 20260507061351 | 51 | 136 | 0.0 | 0.0 | 0.00 | 0.03 | 0.02 | 88 | 1018.3 |
| 20260507061254 | 51 | 136 | 0.0 | 0.0 | 0.00 | 0.03 | 0.02 | 88 | 1018.3 |
| 20260507061153 | 51 | 169 | 0.0 | 0.0 | 0.00 | 0.03 | 0.02 | 88 | 1018.3 |
| 20260507061052 | 51 | 169 | 0.0 | 0.0 | 0.00 | 0.03 | 0.02 | 88 | 1018.2 |
| 20260507060952 | 51 | 169 | 0.0 | 0.0 | 0.00 | 0.03 | 0.02 | 88 | 1018.3 |
| 20260507060854 | 51 | 169 | 0.0 | 0.0 | 0.00 | 0.03 | 0.02 | 89 | 1018.3 |
| 20260507060754 | 51 | 169 | 0.0 | 0.0 | 0.00 | 0.03 | 0.02 | 89 | 1018.3 |
| 20260507060652 | 50 | 190 | 0.0 | 0.0 | 0.00 | 0.03 | 0.02 | 89 | 1018.3 |
| 20260507060553 | 50 | 224 | 0.0 | 0.0 | 0.00 | 0.03 | 0.02 | 89 | 1018.3 |
| 20260507060452 | 50 | 224 | 0.0 | 0.0 | 0.00 | 0.03 | 0.02 | 90 | 1018.3 |
| 20260507060351 | 50 | 224 | 0.0 | 0.0 | 0.00 | 0.03 | 0.02 | 90 | 1018.2 |
| 20260507060244 | 50 | 224 | 0.0 | 0.0 | 0.00 | 0.03 | 0.02 | 90 | 1018.2 |
| 20260507060146 | 50 | 224 | 0.0 | 0.0 | 0.00 | 0.03 | 0.02 | 90 | 1018.2 |
| 20260507060044 | 50 | 224 | 0.0 | 0.0 | 0.00 | 0.03 | 0.02 | 90 | 1018.3 |
| 20260507055943 | 50 | 224 | 0.0 | 0.0 | 0.00 | 0.03 | 0.02 | 90 | 1018.3 |
| 20260507055844 | 50 | 224 | 0.0 | 0.0 | 0.00 | 0.03 | 0.02 | 90 | 1018.3 |
| 20260507055745 | 50 | 224 | 0.0 | 0.0 | 0.00 | 0.03 | 0.02 | 91 | 1018.3 |
| 20260507055644 | 50 | 224 | 0.0 | 0.0 | 0.00 | 0.03 | 0.02 | 91 | 1018.2 |
| 20260507055547 | 50 | 224 | 0.0 | 0.0 | 0.00 | 0.03 | 0.02 | 91 | 1018.3 |
| 20260507055446 | 50 | 224 | 0.0 | 0.0 | 0.00 | 0.03 | 0.02 | 91 | 1018.2 |
| 20260507055344 | 50 | 224 | 0.0 | 0.0 | 0.00 | 0.03 | 0.02 | 91 | 1018.3 |
| 20260507055244 | 50 | 224 | 0.0 | 0.0 | 0.00 | 0.03 | 0.02 | 91 | 1018.3 |
| 20260507055144 | 50 | 224 | 0.0 | 0.0 | 0.00 | 0.03 | 0.02 | 91 | 1018.2 |
| 20260507055043 | 49 | 224 | 0.0 | 0.0 | 0.00 | 0.03 | 0.02 | 92 | 1018.2 |
| 20260507054944 | 49 | 224 | 0.0 | 0.0 | 0.00 | 0.03 | 0.02 | 92 | 1018.2 |
| 20260507054844 | 49 | 224 | 0.0 | 0.0 | 0.00 | 0.03 | 0.02 | 92 | 1018.3 |
| 20260507054744 | 49 | 224 | 0.0 | 0.0 | 0.00 | 0.03 | 0.02 | 92 | 1018.2 |
| 20260507054645 | 49 | 224 | 0.0 | 0.0 | 0.00 | 0.03 | 0.02 | 92 | 1018.2 |
| 20260507054544 | 49 | 224 | 0.0 | 0.0 | 0.00 | 0.03 | 0.02 | 92 | 1018.2 |
| 20260507054444 | 49 | 224 | 0.0 | 0.0 | 0.00 | 0.03 | 0.02 | 92 | 1018.2 |
| 20260507054347 | 49 | 224 | 0.0 | 0.0 | 0.00 | 0.03 | 0.02 | 92 | 1018.2 |
| 20260507054248 | 49 | 224 | 0.0 | 0.0 | 0.00 | 0.03 | 0.02 | 92 | 1018.2 |
| 20260507054145 | 49 | 224 | 0.0 | 0.0 | 0.00 | 0.03 | 0.02 | 92 | 1018.2 |
| 20260507054044 | 49 | 224 | 0.0 | 0.0 | 0.00 | 0.03 | 0.02 | 92 | 1018.2 |
| 20260507053946 | 49 | 224 | 0.0 | 0.0 | 0.00 | 0.03 | 0.02 | 92 | 1018.2 |
| 20260507053844 | 49 | 224 | 0.0 | 0.0 | 0.00 | 0.03 | 0.02 | 92 | 1018.2 |
| 20260507053747 | 49 | 224 | 0.0 | 0.0 | 0.00 | 0.03 | 0.02 | 92 | 1018.2 |
| 20260507053640 | 49 | 224 | 0.0 | 0.0 | 0.00 | 0.03 | 0.02 | 92 | 1018.1 |
| 20260507053540 | 49 | 224 | 0.0 | 0.0 | 0.00 | 0.03 | 0.02 | 92 | 1018.1 |
| 20260507053442 | 49 | 224 | 0.0 | 0.0 | 0.00 | 0.03 | 0.02 | 92 | 1018.1 |
| 20260507053341 | 49 | 224 | 0.0 | 0.0 | 0.00 | 0.03 | 0.02 | 92 | 1018.1 |
| 20260507053243 | 48 | 224 | 0.0 | 0.0 | 0.00 | 0.03 | 0.02 | 92 | 1018.1 |
| 20260507053143 | 48 | 224 | 0.0 | 0.0 | 0.00 | 0.03 | 0.02 | 92 | 1018.1 |
| 20260507053040 | 48 | 224 | 0.0 | 0.0 | 0.00 | 0.03 | 0.02 | 92 | 1018.1 |
| 20260507052943 | 48 | 224 | 0.0 | 0.0 | 0.00 | 0.03 | 0.02 | 92 | 1018.1 |
| 20260507052841 | 48 | 224 | 0.0 | 0.0 | 0.00 | 0.03 | 0.02 | 92 | 1018.1 |
| 20260507052740 | 48 | 224 | 0.0 | 0.0 | 0.00 | 0.03 | 0.02 | 92 | 1018.1 |
| 20260507052643 | 48 | 224 | 0.0 | 0.0 | 0.00 | 0.03 | 0.02 | 92 | 1018.1 |
| 20260507052539 | 48 | 224 | 0.0 | 0.0 | 0.00 | 0.03 | 0.02 | 92 | 1018.1 |
| 20260507052432 | 48 | 224 | 0.0 | 0.0 | 0.00 | 0.03 | 0.02 | 92 | 1018.1 |
| 20260507052332 | 48 | 224 | 0.0 | 0.0 | 0.00 | 0.03 | 0.02 | 92 | 1018.1 |
| 20260507052234 | 48 | 224 | 0.0 | 0.0 | 0.00 | 0.03 | 0.02 | 92 | 1018.1 |
| 20260507052134 | 48 | 224 | 0.0 | 0.0 | 0.00 | 0.03 | 0.02 | 92 | 1018.0 |
| 20260507052032 | 48 | 224 | 0.0 | 0.0 | 0.00 | 0.03 | 0.02 | 92 | 1018.1 |
| 20260507051932 | 48 | 224 | 0.0 | 0.0 | 0.00 | 0.03 | 0.02 | 92 | 1018.1 |
| 20260507051830 | 48 | 224 | 0.0 | 0.0 | 0.00 | 0.03 | 0.02 | 92 | 1018.1 |
| 20260507051730 | 48 | 224 | 0.0 | 0.0 | 0.00 | 0.03 | 0.02 | 92 | 1018.1 |
| 20260507051630 | 48 | 224 | 0.0 | 0.0 | 0.00 | 0.03 | 0.02 | 92 | 1018.1 |
| 20260507051533 | 48 | 224 | 0.0 | 0.0 | 0.00 | 0.03 | 0.02 | 92 | 1018.1 |
| 20260507051433 | 48 | 224 | 0.0 | 0.0 | 0.00 | 0.03 | 0.02 | 92 | 1018.1 |
| 20260507051330 | 48 | 224 | 0.0 | 0.0 | 0.00 | 0.03 | 0.02 | 92 | 1018.1 |
| 20260507051230 | 48 | 224 | 0.0 | 0.0 | 0.00 | 0.03 | 0.02 | 92 | 1018.2 |
| 20260507051128 | 48 | 224 | 0.0 | 0.0 | 0.00 | 0.03 | 0.02 | 92 | 1018.1 |
| 20260507051029 | 48 | 224 | 0.0 | 0.0 | 0.00 | 0.03 | 0.02 | 92 | 1018.1 |
| 20260507050926 | 48 | 224 | 0.0 | 0.0 | 0.00 | 0.03 | 0.02 | 92 | 1018.1 |
| 20260507050826 | 48 | 224 | 0.0 | 0.0 | 0.00 | 0.03 | 0.02 | 92 | 1018.1 |
| 20260507050725 | 48 | 224 | 0.0 | 0.0 | 0.00 | 0.03 | 0.02 | 92 | 1018.1 |
| 20260507050624 | 48 | 224 | 0.0 | 0.0 | 0.00 | 0.03 | 0.02 | 92 | 1018.0 |
| 20260507050524 | 47 | 224 | 0.0 | 0.0 | 0.00 | 0.03 | 0.02 | 92 | 1018.0 |
| 20260507050422 | 47 | 224 | 0.0 | 0.0 | 0.00 | 0.03 | 0.02 | 92 | 1018.0 |
| 20260507050322 | 47 | 224 | 0.0 | 0.0 | 0.00 | 0.03 | 0.02 | 92 | 1018.0 |
| 20260507050223 | 47 | 224 | 0.0 | 0.0 | 0.00 | 0.03 | 0.02 | 92 | 1018.0 |
| 20260507050118 | 47 | 224 | 0.0 | 0.0 | 0.00 | 0.03 | 0.02 | 92 | 1018.0 |
| 20260507050017 | 47 | 224 | 0.0 | 0.0 | 0.00 | 0.03 | 0.02 | 92 | 1018.0 |
| 20260507045918 | 47 | 224 | 0.0 | 0.0 | 0.00 | 0.03 | 0.02 | 92 | 1018.0 |
| 20260507045816 | 47 | 224 | 0.0 | 0.0 | 0.00 | 0.03 | 0.02 | 92 | 1018.0 |
| 20260507045710 | 47 | 224 | 0.0 | 0.0 | 0.00 | 0.03 | 0.02 | 92 | 1018.0 |
| 20260507045611 | 47 | 191 | 0.0 | 0.0 | 0.00 | 0.03 | 0.02 | 92 | 1018.0 |
| 20260507045509 | 47 | 191 | 0.0 | 0.0 | 0.00 | 0.03 | 0.02 | 92 | 1018.0 |
| 20260507045408 | 47 | 187 | 0.0 | 0.0 | 0.00 | 0.03 | 0.02 | 92 | 1017.9 |
| 20260507045311 | 47 | 188 | 0.0 | 0.0 | 0.00 | 0.03 | 0.02 | 92 | 1017.9 |
| 20260507045206 | 47 | 188 | 0.0 | 0.0 | 0.00 | 0.03 | 0.02 | 92 | 1017.9 |
| 20260507045105 | 47 | 188 | 0.0 | 0.0 | 0.00 | 0.03 | 0.02 | 92 | 1017.8 |
| 20260507045006 | 47 | 188 | 0.0 | 0.0 | 0.00 | 0.03 | 0.02 | 92 | 1017.9 |
| 20260507044902 | 47 | 187 | 0.0 | 0.0 | 0.00 | 0.03 | 0.02 | 92 | 1017.8 |
| 20260507044804 | 47 | 188 | 0.0 | 0.0 | 0.00 | 0.03 | 0.02 | 92 | 1017.9 |
| 20260507044703 | 47 | 187 | 0.0 | 0.0 | 0.00 | 0.03 | 0.02 | 92 | 1017.8 |
| 20260507044602 | 47 | 188 | 0.0 | 0.0 | 0.00 | 0.03 | 0.02 | 92 | 1017.8 |
| 20260507044501 | 47 | 187 | 0.0 | 0.0 | 0.00 | 0.03 | 0.02 | 92 | 1017.8 |
| 20260507044358 | 47 | 188 | 0.0 | 0.0 | 0.00 | 0.03 | 0.02 | 92 | 1017.8 |
| 20260507044259 | 47 | 187 | 0.0 | 0.0 | 0.00 | 0.03 | 0.02 | 92 | 1017.8 |
| 20260507044155 | 47 | 187 | 0.0 | 0.0 | 0.00 | 0.03 | 0.02 | 92 | 1017.8 |
| 20260507044057 | 47 | 188 | 0.0 | 0.0 | 0.00 | 0.03 | 0.02 | 92 | 1017.8 |
| 20260507043950 | 47 | 187 | 0.0 | 0.0 | 0.00 | 0.03 | 0.02 | 92 | 1017.8 |
| 20260507043850 | 47 | 187 | 0.0 | 0.0 | 0.00 | 0.03 | 0.02 | 92 | 1017.8 |
| 20260507043753 | 47 | 187 | 0.0 | 0.0 | 0.00 | 0.03 | 0.02 | 92 | 1017.8 |
| 20260507043648 | 47 | 187 | 0.0 | 0.0 | 0.00 | 0.03 | 0.02 | 92 | 1017.8 |
| 20260507043546 | 47 | 187 | 0.0 | 0.0 | 0.00 | 0.03 | 0.02 | 92 | 1017.8 |
| 20260507043447 | 47 | 187 | 0.0 | 0.0 | 0.00 | 0.03 | 0.02 | 92 | 1017.7 |
| 20260507043345 | 47 | 187 | 0.0 | 0.0 | 0.00 | 0.03 | 0.02 | 92 | 1017.8 |
| 20260507043244 | 47 | 187 | 0.0 | 0.0 | 0.00 | 0.03 | 0.02 | 92 | 1017.7 |
| 20260507043138 | 47 | 187 | 0.0 | 0.0 | 0.00 | 0.03 | 0.02 | 92 | 1017.7 |
| 20260507043037 | 47 | 187 | 0.0 | 0.0 | 0.00 | 0.03 | 0.02 | 92 | 1017.7 |
| 20260507042936 | 47 | 188 | 0.0 | 0.0 | 0.00 | 0.03 | 0.02 | 92 | 1017.7 |
| 20260507042836 | 47 | 187 | 0.0 | 0.0 | 0.00 | 0.03 | 0.02 | 92 | 1017.7 |
| 20260507042739 | 47 | 187 | 0.0 | 0.0 | 0.00 | 0.03 | 0.02 | 92 | 1017.7 |
| 20260507042631 | 47 | 187 | 0.0 | 0.0 | 0.00 | 0.03 | 0.02 | 92 | 1017.7 |
| 20260507042533 | 47 | 187 | 0.0 | 0.0 | 0.00 | 0.03 | 0.02 | 92 | 1017.7 |
| 20260507042429 | 47 | 187 | 0.0 | 0.0 | 0.00 | 0.03 | 0.02 | 92 | 1017.7 |
| 20260507042330 | 47 | 186 | 0.0 | 0.0 | 0.00 | 0.03 | 0.02 | 92 | 1017.6 |
| 20260507042230 | 47 | 186 | 0.0 | 0.0 | 0.00 | 0.03 | 0.02 | 92 | 1017.6 |
| 20260507042129 | 47 | 186 | 0.0 | 0.0 | 0.00 | 0.03 | 0.02 | 92 | 1017.7 |
| 20260507042030 | 47 | 186 | 0.0 | 0.0 | 0.00 | 0.03 | 0.02 | 92 | 1017.6 |
| 20260507041930 | 47 | 186 | 0.0 | 0.0 | 0.00 | 0.03 | 0.02 | 92 | 1017.6 |
| 20260507041827 | 47 | 186 | 0.0 | 0.0 | 0.00 | 0.03 | 0.02 | 92 | 1017.6 |
| 20260507041727 | 47 | 186 | 0.0 | 0.0 | 0.00 | 0.03 | 0.02 | 92 | 1017.6 |
| 20260507041624 | 47 | 186 | 0.0 | 0.0 | 0.00 | 0.03 | 0.02 | 92 | 1017.6 |
| 20260507041524 | 47 | 186 | 0.0 | 0.0 | 0.00 | 0.03 | 0.02 | 92 | 1017.6 |
| 20260507041425 | 47 | 186 | 0.0 | 0.0 | 0.00 | 0.03 | 0.02 | 92 | 1017.6 |
| 20260507041321 | 47 | 186 | 0.0 | 0.0 | 0.00 | 0.03 | 0.02 | 92 | 1017.6 |
| 20260507041218 | 47 | 186 | 0.0 | 0.0 | 0.00 | 0.03 | 0.02 | 92 | 1017.6 |
| 20260507041112 | 47 | 186 | 0.0 | 0.0 | 0.00 | 0.03 | 0.02 | 92 | 1017.6 |
| 20260507041007 | 47 | 186 | 0.0 | 0.0 | 0.00 | 0.03 | 0.02 | 92 | 1017.6 |
| 20260507040907 | 47 | 186 | 0.0 | 0.0 | 0.00 | 0.03 | 0.02 | 92 | 1017.6 |
| 20260507040802 | 47 | 186 | 0.0 | 0.0 | 0.00 | 0.03 | 0.02 | 92 | 1017.6 |
| 20260507040701 | 47 | 186 | 0.0 | 0.0 | 0.00 | 0.03 | 0.02 | 92 | 1017.6 |
| 20260507040600 | 47 | 186 | 0.0 | 0.0 | 0.00 | 0.03 | 0.02 | 92 | 1017.6 |
| 20260507040500 | 47 | 186 | 0.0 | 0.0 | 0.00 | 0.03 | 0.02 | 92 | 1017.6 |
| 20260507040354 | 47 | 186 | 0.0 | 0.0 | 0.00 | 0.03 | 0.02 | 92 | 1017.6 |
| 20260507040252 | 47 | 186 | 0.0 | 0.0 | 0.00 | 0.03 | 0.02 | 92 | 1017.5 |
| 20260507040150 | 47 | 186 | 0.0 | 0.0 | 0.00 | 0.03 | 0.02 | 92 | 1017.5 |
| 20260507040054 | 47 | 186 | 0.0 | 0.0 | 0.00 | 0.03 | 0.02 | 92 | 1017.6 |
| 20260507035950 | 47 | 186 | 0.0 | 0.0 | 0.00 | 0.03 | 0.02 | 92 | 1017.5 |
| 20260507035847 | 47 | 186 | 0.0 | 0.0 | 0.00 | 0.03 | 0.02 | 92 | 1017.5 |
| 20260507035749 | 47 | 186 | 0.0 | 0.0 | 0.00 | 0.03 | 0.02 | 92 | 1017.5 |
| 20260507035650 | 47 | 186 | 0.0 | 0.0 | 0.00 | 0.03 | 0.02 | 92 | 1017.6 |
| 20260507035551 | 47 | 186 | 0.0 | 0.0 | 0.00 | 0.03 | 0.02 | 92 | 1017.6 |
| 20260507035447 | 47 | 186 | 0.0 | 0.0 | 0.00 | 0.03 | 0.02 | 92 | 1017.5 |
| 20260507035342 | 47 | 186 | 0.0 | 0.0 | 0.00 | 0.03 | 0.02 | 92 | 1017.5 |
| 20260507035239 | 47 | 186 | 0.0 | 0.0 | 0.00 | 0.03 | 0.02 | 92 | 1017.5 |
| 20260507035138 | 47 | 186 | 0.0 | 0.0 | 0.00 | 0.03 | 0.02 | 92 | 1017.6 |
| 20260507035040 | 47 | 186 | 0.0 | 0.0 | 0.00 | 0.03 | 0.02 | 92 | 1017.5 |
| 20260507034936 | 47 | 186 | 0.0 | 0.0 | 0.00 | 0.03 | 0.02 | 92 | 1017.5 |
| 20260507034837 | 47 | 186 | 0.0 | 0.0 | 0.00 | 0.03 | 0.02 | 92 | 1017.5 |
| 20260507034737 | 47 | 186 | 0.0 | 0.0 | 0.00 | 0.03 | 0.02 | 92 | 1017.5 |
| 20260507034630 | 47 | 186 | 0.0 | 0.0 | 0.00 | 0.03 | 0.02 | 92 | 1017.6 |
| 20260507034533 | 47 | 186 | 0.0 | 0.0 | 0.00 | 0.03 | 0.02 | 92 | 1017.5 |
| 20260507034430 | 47 | 186 | 0.0 | 0.0 | 0.00 | 0.03 | 0.02 | 92 | 1017.6 |
| 20260507034327 | 47 | 186 | 0.0 | 0.0 | 0.00 | 0.03 | 0.02 | 92 | 1017.5 |
| 20260507034227 | 47 | 186 | 0.0 | 0.0 | 0.00 | 0.03 | 0.02 | 92 | 1017.5 |
| 20260507034126 | 47 | 186 | 0.0 | 0.0 | 0.00 | 0.03 | 0.02 | 92 | 1017.6 |
| 20260507034026 | 47 | 186 | 0.0 | 0.0 | 0.00 | 0.03 | 0.02 | 92 | 1017.5 |
| 20260507033920 | 47 | 186 | 0.0 | 0.0 | 0.00 | 0.03 | 0.02 | 92 | 1017.5 |
| 20260507033821 | 47 | 186 | 0.0 | 0.0 | 0.00 | 0.03 | 0.02 | 92 | 1017.5 |
| 20260507033721 | 47 | 186 | 0.0 | 0.0 | 0.00 | 0.03 | 0.02 | 92 | 1017.5 |
| 20260507033616 | 47 | 186 | 0.0 | 0.0 | 0.00 | 0.03 | 0.02 | 92 | 1017.5 |
| 20260507033515 | 47 | 186 | 0.0 | 0.0 | 0.00 | 0.03 | 0.02 | 92 | 1017.5 |
| 20260507033414 | 47 | 186 | 0.0 | 0.0 | 0.00 | 0.03 | 0.02 | 92 | 1017.5 |
| 20260507033314 | 47 | 186 | 0.0 | 0.0 | 0.00 | 0.03 | 0.02 | 92 | 1017.5 |
| 20260507033212 | 47 | 186 | 0.0 | 0.0 | 0.00 | 0.03 | 0.02 | 92 | 1017.5 |
| 20260507033112 | 47 | 186 | 0.0 | 0.0 | 0.00 | 0.03 | 0.02 | 92 | 1017.5 |
| 20260507033012 | 47 | 186 | 0.0 | 0.0 | 0.00 | 0.03 | 0.02 | 92 | 1017.5 |
| 20260507032908 | 47 | 186 | 0.0 | 0.0 | 0.00 | 0.03 | 0.02 | 92 | 1017.5 |
| 20260507032811 | 47 | 186 | 0.0 | 0.0 | 0.00 | 0.03 | 0.02 | 92 | 1017.5 |
| 20260507032708 | 47 | 186 | 0.0 | 0.0 | 0.00 | 0.03 | 0.02 | 92 | 1017.5 |
| 20260507032607 | 47 | 155 | 0.0 | 0.0 | 0.00 | 0.03 | 0.02 | 92 | 1017.5 |
| 20260507032505 | 47 | 155 | 0.0 | 0.0 | 0.00 | 0.03 | 0.02 | 92 | 1017.5 |
| 20260507032405 | 47 | 155 | 0.0 | 0.0 | 0.00 | 0.03 | 0.02 | 92 | 1017.5 |
| 20260507032307 | 47 | 155 | 0.0 | 0.0 | 0.00 | 0.03 | 0.02 | 92 | 1017.5 |
| 20260507032204 | 47 | 155 | 0.0 | 0.0 | 0.00 | 0.03 | 0.02 | 92 | 1017.6 |
| 20260507032104 | 47 | 155 | 0.0 | 0.0 | 0.00 | 0.03 | 0.02 | 92 | 1017.6 |
| 20260507032005 | 47 | 155 | 0.0 | 0.0 | 0.00 | 0.03 | 0.02 | 92 | 1017.6 |
| 20260507031904 | 47 | 155 | 0.0 | 0.0 | 0.00 | 0.03 | 0.02 | 92 | 1017.6 |
| 20260507031803 | 47 | 155 | 0.0 | 0.0 | 0.00 | 0.03 | 0.02 | 92 | 1017.6 |
| 20260507031702 | 47 | 155 | 0.0 | 0.0 | 0.00 | 0.03 | 0.02 | 92 | 1017.5 |
| 20260507031601 | 47 | 155 | 0.0 | 0.0 | 0.00 | 0.03 | 0.02 | 92 | 1017.5 |
| 20260507031501 | 47 | 155 | 0.0 | 0.0 | 0.00 | 0.03 | 0.02 | 92 | 1017.5 |
| 20260507031359 | 47 | 155 | 0.0 | 0.0 | 0.00 | 0.03 | 0.02 | 92 | 1017.5 |
| 20260507031301 | 47 | 155 | 0.0 | 0.0 | 0.00 | 0.03 | 0.02 | 92 | 1017.5 |
| 20260507031202 | 47 | 155 | 0.0 | 0.0 | 0.00 | 0.03 | 0.02 | 92 | 1017.5 |
| 20260507031100 | 47 | 155 | 0.0 | 0.0 | 0.00 | 0.03 | 0.02 | 92 | 1017.5 |
| 20260507030953 | 47 | 155 | 0.0 | 0.0 | 0.00 | 0.03 | 0.02 | 92 | 1017.5 |
| 20260507030853 | 47 | 155 | 0.0 | 0.0 | 0.00 | 0.03 | 0.02 | 92 | 1017.4 |
| 20260507030751 | 47 | 155 | 0.0 | 0.0 | 0.00 | 0.03 | 0.02 | 92 | 1017.5 |
| 20260507030649 | 47 | 155 | 0.0 | 0.0 | 0.00 | 0.03 | 0.02 | 92 | 1017.5 |
| 20260507030548 | 47 | 155 | 0.0 | 0.0 | 0.00 | 0.03 | 0.02 | 92 | 1017.5 |
| 20260507030448 | 47 | 155 | 0.0 | 0.0 | 0.00 | 0.03 | 0.02 | 92 | 1017.5 |
| 20260507030350 | 47 | 155 | 0.0 | 0.0 | 0.00 | 0.03 | 0.02 | 92 | 1017.5 |
| 20260507030244 | 47 | 155 | 0.0 | 0.0 | 0.00 | 0.03 | 0.02 | 92 | 1017.5 |
| 20260507030142 | 47 | 155 | 0.0 | 0.0 | 0.00 | 0.03 | 0.02 | 92 | 1017.5 |
| 20260507030040 | 47 | 155 | 0.0 | 0.0 | 0.00 | 0.03 | 0.02 | 92 | 1017.4 |
| 20260507025941 | 47 | 155 | 0.0 | 0.0 | 0.00 | 0.03 | 0.02 | 92 | 1017.5 |
| 20260507025836 | 47 | 155 | 0.0 | 0.0 | 0.00 | 0.03 | 0.02 | 92 | 1017.4 |
| 20260507025740 | 47 | 105 | 0.0 | 0.0 | 0.00 | 0.03 | 0.02 | 92 | 1017.5 |
| 20260507025630 | 47 | 78 | 0.0 | 0.0 | 0.00 | 0.03 | 0.02 | 92 | 1017.4 |
| 20260507025530 | 47 | 78 | 0.0 | 0.0 | 0.00 | 0.03 | 0.02 | 92 | 1017.5 |
| 20260507025431 | 47 | 78 | 0.0 | 0.0 | 0.00 | 0.03 | 0.02 | 92 | 1017.5 |
| 20260507025326 | 47 | 78 | 0.0 | 0.0 | 0.00 | 0.03 | 0.02 | 92 | 1017.5 |
| 20260507025231 | 47 | 78 | 0.0 | 0.0 | 0.00 | 0.03 | 0.02 | 92 | 1017.5 |
| 20260507025124 | 47 | 78 | 0.0 | 0.0 | 0.00 | 0.03 | 0.02 | 92 | 1017.5 |
| 20260507025022 | 47 | 78 | 0.0 | 0.0 | 0.00 | 0.03 | 0.02 | 92 | 1017.5 |
| 20260507024925 | 46 | 78 | 0.0 | 0.0 | 0.00 | 0.03 | 0.02 | 92 | 1017.5 |
| 20260507024820 | 46 | 78 | 0.0 | 0.0 | 0.00 | 0.03 | 0.02 | 92 | 1017.5 |
| 20260507024725 | 46 | 78 | 0.0 | 0.0 | 0.00 | 0.03 | 0.02 | 92 | 1017.4 |
| 20260507024617 | 46 | 78 | 0.0 | 0.0 | 0.00 | 0.03 | 0.02 | 92 | 1017.5 |
| 20260507024517 | 46 | 78 | 0.0 | 0.0 | 0.00 | 0.03 | 0.02 | 92 | 1017.5 |
| 20260507024415 | 46 | 78 | 0.0 | 0.0 | 0.00 | 0.03 | 0.02 | 92 | 1017.5 |
| 20260507024315 | 46 | 78 | 0.0 | 0.0 | 0.00 | 0.03 | 0.02 | 92 | 1017.5 |
| 20260507024211 | 46 | 78 | 0.0 | 0.0 | 0.00 | 0.03 | 0.02 | 92 | 1017.5 |
| 20260507024112 | 46 | 78 | 0.0 | 0.0 | 0.00 | 0.03 | 0.02 | 92 | 1017.5 |
| 20260507024013 | 46 | 78 | 0.0 | 0.0 | 0.00 | 0.03 | 0.02 | 92 | 1017.4 |
| 20260507023912 | 46 | 78 | 0.0 | 0.0 | 0.00 | 0.03 | 0.02 | 92 | 1017.4 |
| 20260507023808 | 46 | 78 | 0.0 | 0.0 | 0.00 | 0.03 | 0.02 | 92 | 1017.4 |
| 20260507023707 | 46 | 78 | 0.0 | 0.0 | 0.00 | 0.03 | 0.02 | 92 | 1017.4 |
| 20260507023605 | 46 | 78 | 0.0 | 0.0 | 0.00 | 0.03 | 0.02 | 92 | 1017.4 |
| 20260507023506 | 46 | 78 | 0.0 | 0.0 | 0.00 | 0.03 | 0.02 | 92 | 1017.4 |
| 20260507023405 | 46 | 78 | 0.0 | 0.0 | 0.00 | 0.03 | 0.02 | 92 | 1017.4 |
| 20260507023307 | 46 | 78 | 0.0 | 0.0 | 0.00 | 0.03 | 0.02 | 92 | 1017.4 |
| 20260507023204 | 46 | 78 | 0.0 | 0.0 | 0.00 | 0.03 | 0.02 | 92 | 1017.4 |
| 20260507023104 | 46 | 78 | 0.0 | 0.0 | 0.00 | 0.03 | 0.02 | 92 | 1017.4 |
| 20260507023004 | 46 | 78 | 0.0 | 0.0 | 0.00 | 0.03 | 0.02 | 92 | 1017.5 |
| 20260507022903 | 46 | 78 | 0.0 | 0.0 | 0.00 | 0.03 | 0.02 | 92 | 1017.4 |
| 20260507022803 | 46 | 78 | 0.0 | 0.0 | 0.00 | 0.03 | 0.02 | 92 | 1017.4 |
| 20260507022705 | 46 | 78 | 0.0 | 0.0 | 0.00 | 0.03 | 0.02 | 92 | 1017.4 |
| 20260507022600 | 46 | 78 | 0.0 | 0.0 | 0.00 | 0.03 | 0.02 | 92 | 1017.4 |
| 20260507022503 | 46 | 78 | 0.0 | 0.0 | 0.00 | 0.03 | 0.02 | 92 | 1017.4 |
| 20260507022402 | 46 | 78 | 0.0 | 0.0 | 0.00 | 0.03 | 0.02 | 92 | 1017.4 |
| 20260507022257 | 46 | 80 | 0.0 | 0.0 | 0.00 | 0.03 | 0.02 | 92 | 1017.3 |
| 20260507022157 | 46 | 80 | 0.0 | 0.0 | 0.00 | 0.03 | 0.02 | 92 | 1017.4 |
| 20260507022057 | 46 | 80 | 0.0 | 0.0 | 0.00 | 0.03 | 0.02 | 92 | 1017.3 |
| 20260507021959 | 46 | 80 | 0.0 | 0.0 | 0.00 | 0.03 | 0.02 | 92 | 1017.4 |
| 20260507021856 | 46 | 80 | 0.0 | 0.0 | 0.00 | 0.03 | 0.02 | 92 | 1017.4 |
| 20260507021756 | 46 | 80 | 0.0 | 0.0 | 0.00 | 0.03 | 0.02 | 92 | 1017.4 |
| 20260507021657 | 46 | 80 | 0.0 | 0.0 | 0.00 | 0.03 | 0.02 | 92 | 1017.4 |
| 20260507021554 | 46 | 80 | 0.0 | 0.0 | 0.00 | 0.03 | 0.02 | 92 | 1017.4 |
| 20260507021451 | 46 | 80 | 0.0 | 0.0 | 0.00 | 0.03 | 0.02 | 92 | 1017.4 |
| 20260507021342 | 46 | 80 | 0.0 | 0.0 | 0.00 | 0.03 | 0.02 | 92 | 1017.4 |
| 20260507021238 | 46 | 80 | 0.0 | 0.0 | 0.00 | 0.03 | 0.02 | 92 | 1017.4 |
| 20260507021135 | 46 | 80 | 0.0 | 0.0 | 0.01 | 0.03 | 0.02 | 91 | 1017.4 |
| 20260507021031 | 46 | 80 | 0.0 | 0.0 | 0.01 | 0.03 | 0.02 | 91 | 1017.4 |
| 20260507020933 | 46 | 80 | 0.0 | 0.0 | 0.01 | 0.03 | 0.02 | 91 | 1017.4 |
| 20260507020832 | 46 | 80 | 0.0 | 0.0 | 0.01 | 0.03 | 0.02 | 91 | 1017.4 |
| 20260507020729 | 46 | 80 | 0.0 | 0.0 | 0.01 | 0.03 | 0.02 | 91 | 1017.4 |
| 20260507020629 | 46 | 80 | 0.0 | 0.0 | 0.01 | 0.03 | 0.02 | 91 | 1017.4 |
| 20260507020532 | 46 | 80 | 0.0 | 0.0 | 0.01 | 0.03 | 0.02 | 91 | 1017.4 |
| 20260507020429 | 46 | 80 | 0.0 | 0.0 | 0.01 | 0.03 | 0.02 | 91 | 1017.4 |
| 20260507020330 | 46 | 80 | 0.0 | 0.0 | 0.01 | 0.03 | 0.02 | 91 | 1017.4 |
| 20260507020225 | 46 | 80 | 0.0 | 0.0 | 0.01 | 0.03 | 0.02 | 91 | 1017.4 |
| 20260507020124 | 46 | 80 | 0.0 | 0.0 | 0.01 | 0.03 | 0.02 | 91 | 1017.4 |
| 20260507020021 | 46 | 80 | 0.0 | 0.0 | 0.01 | 0.03 | 0.02 | 91 | 1017.4 |
| 20260507015920 | 46 | 80 | 0.0 | 0.0 | 0.01 | 0.02 | 0.02 | 91 | 1017.4 |
| 20260507015822 | 46 | 80 | 0.0 | 0.0 | 0.01 | 0.02 | 0.02 | 91 | 1017.4 |
| 20260507015716 | 46 | 80 | 0.0 | 0.0 | 0.01 | 0.02 | 0.02 | 91 | 1017.4 |
| 20260507015617 | 46 | 80 | 0.0 | 0.0 | 0.01 | 0.02 | 0.02 | 91 | 1017.4 |
| 20260507015516 | 46 | 80 | 0.0 | 0.0 | 0.01 | 0.02 | 0.02 | 91 | 1017.3 |
| 20260507015416 | 46 | 80 | 0.0 | 0.0 | 0.01 | 0.02 | 0.02 | 91 | 1017.3 |
| 20260507015308 | 46 | 80 | 0.0 | 0.0 | 0.01 | 0.02 | 0.02 | 91 | 1017.3 |
| 20260507015208 | 46 | 80 | 0.0 | 0.0 | 0.01 | 0.02 | 0.02 | 91 | 1017.3 |
| 20260507015105 | 46 | 80 | 0.0 | 0.0 | 0.01 | 0.02 | 0.02 | 91 | 1017.3 |
| 20260507015005 | 46 | 80 | 0.0 | 0.0 | 0.01 | 0.02 | 0.02 | 91 | 1017.2 |
| 20260507014905 | 46 | 80 | 0.0 | 0.0 | 0.01 | 0.02 | 0.02 | 91 | 1017.2 |
| 20260507014759 | 46 | 80 | 0.0 | 0.0 | 0.01 | 0.02 | 0.02 | 91 | 1017.2 |
| 20260507014703 | 46 | 80 | 0.0 | 0.0 | 0.01 | 0.02 | 0.02 | 91 | 1017.2 |
| 20260507014557 | 46 | 80 | 0.0 | 0.0 | 0.01 | 0.02 | 0.02 | 91 | 1017.1 |
| 20260507014458 | 46 | 80 | 0.0 | 0.0 | 0.01 | 0.02 | 0.02 | 91 | 1017.2 |
| 20260507014356 | 46 | 80 | 0.0 | 0.0 | 0.01 | 0.02 | 0.02 | 91 | 1017.2 |
| 20260507014250 | 46 | 80 | 0.0 | 0.0 | 0.01 | 0.02 | 0.02 | 91 | 1017.1 |
| 20260507014149 | 46 | 80 | 0.0 | 0.0 | 0.01 | 0.02 | 0.02 | 91 | 1017.1 |
| 20260507014045 | 46 | 80 | 0.0 | 0.0 | 0.01 | 0.02 | 0.02 | 91 | 1017.1 |
| 20260507013946 | 46 | 80 | 0.0 | 0.0 | 0.01 | 0.02 | 0.02 | 91 | 1017.2 |
| 20260507013846 | 46 | 80 | 0.0 | 0.0 | 0.01 | 0.02 | 0.02 | 91 | 1017.1 |
| 20260507013745 | 46 | 80 | 0.0 | 0.0 | 0.01 | 0.02 | 0.02 | 91 | 1017.1 |
| 20260507013642 | 47 | 80 | 0.0 | 0.0 | 0.01 | 0.02 | 0.02 | 91 | 1017.2 |
| 20260507013545 | 47 | 80 | 0.0 | 0.0 | 0.01 | 0.02 | 0.02 | 91 | 1017.1 |
| 20260507013441 | 47 | 80 | 0.0 | 0.0 | 0.01 | 0.02 | 0.02 | 91 | 1017.1 |
| 20260507013337 | 47 | 80 | 0.0 | 0.0 | 0.01 | 0.02 | 0.02 | 91 | 1017.0 |
| 20260507013236 | 47 | 80 | 0.0 | 0.0 | 0.01 | 0.02 | 0.02 | 91 | 1017.0 |
| 20260507013142 | 47 | 80 | 0.0 | 0.0 | 0.01 | 0.02 | 0.02 | 91 | 1017.1 |
| 20260507013034 | 47 | 80 | 0.0 | 0.0 | 0.01 | 0.02 | 0.02 | 91 | 1017.1 |
| 20260507012931 | 47 | 80 | 0.0 | 0.0 | 0.01 | 0.02 | 0.02 | 91 | 1017.0 |
| 20260507012832 | 47 | 80 | 0.0 | 0.0 | 0.01 | 0.02 | 0.02 | 91 | 1017.0 |
| 20260507012736 | 47 | 80 | 0.0 | 0.0 | 0.01 | 0.02 | 0.02 | 91 | 1017.0 |
| 20260507012637 | 47 | 80 | 0.0 | 0.0 | 0.01 | 0.02 | 0.02 | 91 | 1017.0 |
| 20260507012531 | 47 | 80 | 0.0 | 0.0 | 0.01 | 0.02 | 0.02 | 91 | 1017.0 |
| 20260507012432 | 47 | 80 | 0.0 | 0.0 | 0.01 | 0.02 | 0.02 | 91 | 1017.0 |
| 20260507012332 | 47 | 80 | 0.0 | 0.0 | 0.01 | 0.02 | 0.02 | 91 | 1017.0 |
| 20260507012232 | 47 | 80 | 0.0 | 0.0 | 0.01 | 0.02 | 0.02 | 91 | 1017.0 |
| 20260507012137 | 47 | 80 | 0.0 | 0.0 | 0.01 | 0.02 | 0.02 | 91 | 1017.0 |
| 20260507012031 | 47 | 80 | 0.0 | 0.0 | 0.01 | 0.02 | 0.02 | 91 | 1016.9 |
| 20260507011932 | 47 | 80 | 0.0 | 0.0 | 0.01 | 0.02 | 0.02 | 91 | 1016.9 |
| 20260507011830 | 47 | 80 | 0.0 | 0.0 | 0.01 | 0.02 | 0.02 | 91 | 1017.0 |
| 20260507011730 | 47 | 80 | 0.0 | 0.0 | 0.01 | 0.02 | 0.02 | 91 | 1017.0 |
| 20260507011629 | 47 | 80 | 0.0 | 0.0 | 0.01 | 0.02 | 0.02 | 91 | 1017.0 |
| 20260507011532 | 47 | 80 | 0.0 | 0.0 | 0.01 | 0.02 | 0.02 | 91 | 1017.0 |
| 20260507011429 | 47 | 80 | 0.0 | 0.0 | 0.01 | 0.02 | 0.02 | 91 | 1017.0 |
| 20260507011330 | 47 | 80 | 0.0 | 0.0 | 0.01 | 0.02 | 0.02 | 91 | 1017.0 |
| 20260507011229 | 47 | 80 | 0.0 | 0.0 | 0.01 | 0.02 | 0.01 | 91 | 1017.0 |
| 20260507011129 | 47 | 80 | 0.0 | 0.0 | 0.00 | 0.02 | 0.01 | 91 | 1017.0 |
| 20260507011029 | 47 | 80 | 0.0 | 0.0 | 0.00 | 0.02 | 0.01 | 91 | 1017.0 |
| 20260507010930 | 47 | 80 | 0.0 | 0.0 | 0.00 | 0.02 | 0.01 | 91 | 1017.1 |
| 20260507010824 | 47 | 80 | 0.0 | 0.0 | 0.00 | 0.02 | 0.01 | 91 | 1017.1 |
| 20260507010724 | 47 | 80 | 0.0 | 0.0 | 0.00 | 0.02 | 0.01 | 91 | 1017.1 |
| 20260507010621 | 47 | 80 | 0.0 | 0.0 | 0.00 | 0.02 | 0.01 | 91 | 1017.1 |
| 20260507010522 | 47 | 80 | 0.0 | 0.0 | 0.00 | 0.02 | 0.01 | 91 | 1017.1 |
| 20260507010424 | 47 | 80 | 0.0 | 0.0 | 0.00 | 0.02 | 0.01 | 91 | 1017.1 |
| 20260507010317 | 47 | 80 | 0.0 | 0.0 | 0.00 | 0.02 | 0.01 | 91 | 1017.1 |
| 20260507010217 | 47 | 80 | 0.0 | 0.0 | 0.00 | 0.02 | 0.01 | 91 | 1017.1 |
| 20260507010118 | 47 | 80 | 0.0 | 0.0 | 0.00 | 0.02 | 0.01 | 91 | 1017.1 |
| 20260507010016 | 47 | 80 | 0.0 | 0.0 | 0.00 | 0.02 | 0.01 | 91 | 1017.0 |
| 20260507005914 | 47 | 80 | 0.0 | 0.0 | 0.00 | 0.02 | 0.01 | 91 | 1017.1 |
| 20260507005808 | 47 | 80 | 0.0 | 0.0 | 0.00 | 0.02 | 0.01 | 91 | 1017.1 |
| 20260507005708 | 47 | 80 | 0.0 | 0.0 | 0.00 | 0.02 | 0.01 | 91 | 1017.1 |
| 20260507005604 | 47 | 80 | 0.0 | 0.0 | 0.00 | 0.02 | 0.01 | 91 | 1017.1 |
| 20260507005502 | 47 | 80 | 0.0 | 0.0 | 0.00 | 0.02 | 0.01 | 91 | 1017.1 |
| 20260507005404 | 47 | 80 | 0.0 | 0.0 | 0.00 | 0.02 | 0.01 | 91 | 1017.1 |
| 20260507005306 | 47 | 80 | 0.0 | 0.0 | 0.00 | 0.02 | 0.01 | 91 | 1017.1 |
| 20260507005202 | 47 | 80 | 0.0 | 0.0 | 0.00 | 0.02 | 0.01 | 91 | 1017.1 |
| 20260507005100 | 47 | 80 | 0.0 | 0.0 | 0.00 | 0.02 | 0.01 | 91 | 1017.0 |
| 20260507005002 | 47 | 80 | 0.0 | 0.0 | 0.00 | 0.02 | 0.01 | 91 | 1017.1 |
| 20260507004857 | 47 | 60 | 0.0 | 0.0 | 0.00 | 0.02 | 0.01 | 91 | 1017.0 |
| 20260507004750 | 47 | 60 | 0.0 | 0.0 | 0.00 | 0.02 | 0.01 | 91 | 1017.0 |
| 20260507004648 | 47 | 60 | 0.0 | 0.0 | 0.00 | 0.02 | 0.01 | 91 | 1017.0 |
| 20260507004549 | 47 | 60 | 0.0 | 0.0 | 0.00 | 0.02 | 0.01 | 91 | 1017.0 |
| 20260507004445 | 47 | 60 | 0.0 | 0.0 | 0.00 | 0.02 | 0.01 | 91 | 1017.0 |
| 20260507004346 | 47 | 56 | 0.0 | 0.0 | 0.00 | 0.02 | 0.01 | 91 | 1017.0 |
| 20260507004242 | 47 | 56 | 0.0 | 0.0 | 0.00 | 0.02 | 0.01 | 91 | 1017.1 |
| 20260507004138 | 47 | 56 | 0.0 | 0.0 | 0.00 | 0.02 | 0.01 | 91 | 1017.1 |
| 20260507004039 | 47 | 56 | 0.0 | 0.0 | 0.00 | 0.02 | 0.01 | 91 | 1017.1 |
| 20260507003939 | 47 | 56 | 0.0 | 0.0 | 0.00 | 0.02 | 0.01 | 91 | 1017.0 |
| 20260507003840 | 47 | 56 | 0.0 | 0.0 | 0.00 | 0.02 | 0.01 | 91 | 1017.0 |
| 20260507003739 | 47 | 56 | 0.0 | 0.0 | 0.00 | 0.02 | 0.01 | 91 | 1017.0 |
| 20260507003642 | 47 | 56 | 0.0 | 0.0 | 0.00 | 0.02 | 0.01 | 91 | 1017.0 |
| 20260507003538 | 47 | 56 | 0.0 | 0.0 | 0.00 | 0.02 | 0.01 | 91 | 1017.1 |
| 20260507003436 | 47 | 56 | 0.0 | 0.0 | 0.00 | 0.02 | 0.01 | 91 | 1017.1 |
| 20260507003336 | 47 | 56 | 0.0 | 0.0 | 0.00 | 0.02 | 0.01 | 91 | 1017.1 |
| 20260507003235 | 47 | 56 | 0.0 | 0.0 | 0.00 | 0.02 | 0.01 | 91 | 1017.0 |
| 20260507003136 | 47 | 56 | 0.0 | 0.0 | 0.00 | 0.02 | 0.01 | 91 | 1017.1 |
| 20260507003031 | 47 | 56 | 0.0 | 0.0 | 0.00 | 0.02 | 0.01 | 91 | 1017.0 |
| 20260507002932 | 47 | 56 | 0.0 | 0.0 | 0.00 | 0.02 | 0.01 | 91 | 1017.1 |
| 20260507002831 | 47 | 56 | 0.0 | 0.0 | 0.00 | 0.02 | 0.01 | 91 | 1017.0 |
| 20260507002735 | 47 | 56 | 0.0 | 0.0 | 0.00 | 0.02 | 0.01 | 91 | 1017.0 |
| 20260507002631 | 47 | 56 | 0.0 | 0.0 | 0.00 | 0.02 | 0.01 | 91 | 1017.0 |
| 20260507002534 | 47 | 56 | 0.0 | 0.0 | 0.00 | 0.02 | 0.01 | 91 | 1017.1 |
| 20260507002431 | 47 | 56 | 0.0 | 0.0 | 0.00 | 0.02 | 0.01 | 91 | 1017.1 |
| 20260507002333 | 47 | 56 | 0.0 | 0.0 | 0.00 | 0.02 | 0.01 | 91 | 1017.1 |
| 20260507002231 | 47 | 57 | 0.0 | 0.0 | 0.00 | 0.02 | 0.01 | 91 | 1017.1 |
| 20260507002131 | 47 | 300 | 0.0 | 0.0 | 0.00 | 0.02 | 0.01 | 91 | 1017.0 |
| 20260507002032 | 47 | 300 | 0.0 | 0.0 | 0.00 | 0.02 | 0.01 | 91 | 1017.1 |
| 20260507001931 | 47 | 300 | 0.0 | 0.0 | 0.00 | 0.02 | 0.01 | 91 | 1017.0 |
| 20260507001831 | 47 | 300 | 0.0 | 0.0 | 0.00 | 0.02 | 0.01 | 91 | 1017.0 |
| 20260507001730 | 47 | 300 | 0.0 | 0.0 | 0.00 | 0.02 | 0.01 | 91 | 1017.0 |
| 20260507001632 | 47 | 300 | 0.0 | 0.0 | 0.00 | 0.02 | 0.01 | 91 | 1017.0 |
| 20260507001532 | 47 | 300 | 0.0 | 0.0 | 0.00 | 0.02 | 0.01 | 91 | 1017.0 |
| 20260507001432 | 47 | 300 | 0.0 | 0.0 | 0.00 | 0.02 | 0.01 | 91 | 1017.0 |
| 20260507001331 | 47 | 300 | 0.0 | 0.0 | 0.00 | 0.02 | 0.01 | 91 | 1017.0 |
| 20260507001232 | 47 | 300 | 0.0 | 0.0 | 0.00 | 0.02 | 0.01 | 91 | 1017.0 |
| 20260507001128 | 47 | 300 | 0.0 | 0.0 | 0.00 | 0.02 | 0.01 | 91 | 1017.0 |
| 20260507001030 | 47 | 300 | 0.0 | 0.0 | 0.00 | 0.02 | 0.01 | 91 | 1017.0 |
| 20260507000928 | 47 | 300 | 0.0 | 0.0 | 0.00 | 0.02 | 0.01 | 91 | 1017.0 |
| 20260507000827 | 47 | 300 | 0.0 | 0.0 | 0.00 | 0.02 | 0.01 | 91 | 1017.0 |
| 20260507000723 | 47 | 300 | 0.0 | 0.0 | 0.00 | 0.02 | 0.01 | 91 | 1017.0 |
| 20260507000618 | 47 | 300 | 0.0 | 0.0 | 0.00 | 0.02 | 0.01 | 91 | 1017.0 |
| 20260507000514 | 47 | 300 | 0.0 | 0.0 | 0.00 | 0.02 | 0.01 | 91 | 1017.0 |
| 20260507000410 | 47 | 300 | 0.0 | 0.0 | 0.00 | 0.02 | 0.01 | 91 | 1016.9 |
| 20260507000310 | 47 | 300 | 0.0 | 0.0 | 0.00 | 0.02 | 0.01 | 90 | 1017.0 |
| 20260507000212 | 47 | 300 | 0.0 | 0.0 | 0.00 | 0.02 | 0.01 | 90 | 1017.0 |
| 20260507000005 | 47 | 300 | 0.0 | 0.0 | 0.00 | 0.02 | 0.01 | 90 | 1017.0 |
| 20260506235903 | 47 | 300 | 0.0 | 0.0 | 0.00 | 0.02 | 0.01 | 90 | 1016.9 |
| 20260506235803 | 47 | 300 | 0.0 | 0.0 | 0.00 | 0.02 | 0.01 | 90 | 1016.9 |
| 20260506235703 | 47 | 300 | 0.0 | 0.0 | 0.00 | 0.02 | 0.01 | 90 | 1016.9 |
| 20260506235604 | 47 | 300 | 0.0 | 0.0 | 0.00 | 0.02 | 0.01 | 90 | 1016.9 |
| 20260506235503 | 47 | 300 | 0.0 | 0.0 | 0.00 | 0.02 | 0.01 | 90 | 1017.0 |
| 20260506235403 | 47 | 300 | 0.0 | 0.0 | 0.00 | 0.02 | 0.01 | 90 | 1016.9 |
| 20260506235306 | 47 | 300 | 0.0 | 0.0 | 0.00 | 0.02 | 0.01 | 90 | 1017.0 |
| 20260506235206 | 47 | 300 | 0.0 | 0.0 | 0.00 | 0.02 | 0.01 | 90 | 1017.0 |
| 20260506235104 | 47 | 300 | 0.0 | 0.0 | 0.00 | 0.02 | 0.01 | 90 | 1017.0 |
| 20260506235003 | 47 | 300 | 0.0 | 0.0 | 0.00 | 0.02 | 0.01 | 90 | 1017.0 |
| 20260506234903 | 47 | 300 | 0.0 | 0.0 | 0.00 | 0.02 | 0.01 | 90 | 1017.0 |
| 20260506234804 | 47 | 300 | 0.0 | 0.0 | 0.00 | 0.02 | 0.01 | 90 | 1016.9 |
| 20260506234704 | 47 | 300 | 0.0 | 0.0 | 0.00 | 0.02 | 0.01 | 90 | 1016.9 |
| 20260506234604 | 47 | 300 | 0.0 | 0.0 | 0.00 | 0.02 | 0.01 | 90 | 1016.9 |
| 20260506234503 | 47 | 300 | 0.0 | 0.0 | 0.00 | 0.02 | 0.01 | 90 | 1017.0 |
| 20260506234403 | 47 | 300 | 0.0 | 0.0 | 0.00 | 0.02 | 0.01 | 90 | 1017.0 |
| 20260506234304 | 47 | 300 | 0.0 | 0.0 | 0.00 | 0.02 | 0.01 | 90 | 1016.9 |
| 20260506234159 | 47 | 300 | 0.0 | 0.0 | 0.00 | 0.02 | 0.01 | 90 | 1017.0 |
| 20260506234059 | 47 | 300 | 0.0 | 0.0 | 0.00 | 0.02 | 0.01 | 90 | 1017.0 |
| 20260506233959 | 47 | 300 | 0.0 | 0.0 | 0.00 | 0.02 | 0.01 | 90 | 1017.0 |
| 20260506233900 | 47 | 300 | 0.0 | 0.0 | 0.00 | 0.02 | 0.01 | 89 | 1017.0 |
| 20260506233759 | 47 | 300 | 0.0 | 0.0 | 0.00 | 0.02 | 0.01 | 89 | 1017.0 |
| 20260506233702 | 47 | 300 | 0.0 | 0.0 | 0.00 | 0.02 | 0.01 | 89 | 1017.0 |
| 20260506233559 | 47 | 300 | 0.0 | 0.0 | 0.00 | 0.02 | 0.01 | 89 | 1017.0 |
| 20260506233459 | 47 | 300 | 0.0 | 0.0 | 0.00 | 0.02 | 0.01 | 89 | 1016.9 |
| 20260506233359 | 47 | 300 | 0.0 | 0.0 | 0.00 | 0.02 | 0.01 | 89 | 1017.0 |
| 20260506233300 | 47 | 300 | 0.0 | 0.0 | 0.00 | 0.02 | 0.01 | 89 | 1017.0 |
| 20260506233159 | 47 | 300 | 0.0 | 0.9 | 0.00 | 0.02 | 0.01 | 89 | 1017.0 |
| 20260506233102 | 47 | 300 | 0.0 | 0.9 | 0.00 | 0.02 | 0.01 | 89 | 1016.9 |
| 20260506232959 | 48 | 300 | 0.0 | 0.9 | 0.01 | 0.02 | 0.01 | 89 | 1017.0 |
| 20260506232901 | 48 | 300 | 0.0 | 0.9 | 0.01 | 0.02 | 0.01 | 89 | 1016.9 |
| 20260506232759 | 48 | 300 | 0.0 | 0.9 | 0.01 | 0.02 | 0.01 | 89 | 1016.9 |
| 20260506232659 | 48 | 300 | 0.0 | 0.9 | 0.01 | 0.02 | 0.01 | 89 | 1016.9 |
| 20260506232559 | 48 | 300 | 0.0 | 0.9 | 0.01 | 0.02 | 0.01 | 89 | 1016.9 |
| 20260506232459 | 48 | 300 | 0.0 | 0.9 | 0.01 | 0.02 | 0.01 | 89 | 1016.9 |
| 20260506232400 | 48 | 300 | 0.0 | 0.9 | 0.01 | 0.02 | 0.01 | 89 | 1016.8 |
| 20260506232255 | 48 | 300 | 0.0 | 0.9 | 0.01 | 0.02 | 0.01 | 89 | 1016.8 |
| 20260506232158 | 48 | 242 | 0.0 | 0.0 | 0.01 | 0.02 | 0.01 | 89 | 1016.8 |
| 20260506232056 | 48 | 242 | 0.0 | 0.0 | 0.01 | 0.02 | 0.01 | 89 | 1016.8 |
| 20260506231954 | 48 | 242 | 0.0 | 0.0 | 0.01 | 0.02 | 0.01 | 89 | 1016.8 |
| 20260506231856 | 48 | 242 | 0.0 | 0.0 | 0.01 | 0.02 | 0.01 | 89 | 1016.7 |
| 20260506231758 | 48 | 242 | 0.0 | 0.0 | 0.01 | 0.02 | 0.01 | 89 | 1016.8 |
| 20260506231654 | 48 | 242 | 0.0 | 0.9 | 0.01 | 0.02 | 0.01 | 89 | 1016.7 |
| 20260506231555 | 48 | 242 | 0.0 | 0.9 | 0.01 | 0.02 | 0.01 | 89 | 1016.7 |
| 20260506231451 | 48 | 242 | 0.0 | 0.9 | 0.01 | 0.02 | 0.01 | 89 | 1016.7 |
| 20260506231352 | 48 | 242 | 0.0 | 0.9 | 0.01 | 0.02 | 0.01 | 89 | 1016.7 |
| 20260506231253 | 48 | 240 | 0.0 | 0.9 | 0.01 | 0.02 | 0.01 | 89 | 1016.7 |
| 20260506231151 | 48 | 296 | 0.0 | 0.9 | 0.01 | 0.02 | 0.01 | 89 | 1016.7 |
| 20260506230947 | 48 | 296 | 0.0 | 0.9 | 0.01 | 0.02 | 0.01 | 89 | 1016.8 |
| 20260506230847 | 48 | 295 | 0.0 | 0.9 | 0.01 | 0.02 | 0.01 | 89 | 1016.8 |
| 20260506230746 | 48 | 258 | 0.0 | 0.9 | 0.01 | 0.02 | 0.01 | 89 | 1016.8 |
| 20260506230647 | 48 | 252 | 0.0 | 0.9 | 0.01 | 0.02 | 0.01 | 89 | 1016.9 |
| 20260506230547 | 48 | 236 | 0.0 | 0.9 | 0.01 | 0.02 | 0.01 | 89 | 1016.8 |
| 20260506230451 | 48 | 288 | 0.0 | 0.9 | 0.01 | 0.02 | 0.01 | 89 | 1016.8 |
| 20260506230347 | 48 | 288 | 0.0 | 0.9 | 0.01 | 0.02 | 0.01 | 89 | 1016.9 |
| 20260506230246 | 48 | 301 | 0.0 | 0.9 | 0.01 | 0.02 | 0.01 | 89 | 1016.9 |
| 20260506230150 | 48 | 301 | 0.0 | 0.9 | 0.01 | 0.02 | 0.01 | 89 | 1016.9 |
| 20260506230047 | 48 | 301 | 0.0 | 0.9 | 0.01 | 0.02 | 0.01 | 89 | 1016.9 |
| 20260506225946 | 48 | 274 | 0.0 | 0.9 | 0.01 | 0.01 | 0.01 | 89 | 1016.8 |
| 20260506225839 | 48 | 248 | 0.0 | 0.9 | 0.01 | 0.01 | 0.01 | 89 | 1016.9 |
| 20260506225741 | 48 | 248 | 0.0 | 0.9 | 0.01 | 0.01 | 0.01 | 89 | 1016.9 |
| 20260506225640 | 48 | 247 | 0.0 | 0.9 | 0.01 | 0.01 | 0.01 | 89 | 1016.9 |
| 20260506225540 | 48 | 213 | 0.0 | 0.9 | 0.02 | 0.01 | 0.01 | 89 | 1016.9 |
| 20260506225442 | 48 | 213 | 0.0 | 0.9 | 0.02 | 0.01 | 0.01 | 89 | 1016.9 |
| 20260506225339 | 48 | 213 | 0.0 | 7.8 | 0.02 | 0.01 | 0.01 | 88 | 1016.9 |
| 20260506225239 | 48 | 212 | 0.0 | 7.8 | 0.02 | 0.01 | 0.01 | 89 | 1016.9 |
| 20260506225140 | 48 | 211 | 0.0 | 7.8 | 0.02 | 0.01 | 0.01 | 89 | 1017.0 |
| 20260506225039 | 48 | 26 | 0.0 | 7.8 | 0.02 | 0.01 | 0.01 | 89 | 1017.0 |
| 20260506224942 | 48 | 223 | 0.0 | 7.8 | 0.02 | 0.01 | 0.01 | 89 | 1016.9 |
| 20260506224839 | 49 | 219 | 0.0 | 7.8 | 0.02 | 0.01 | 0.01 | 89 | 1016.9 |
| 20260506224742 | 49 | 219 | 0.0 | 7.8 | 0.02 | 0.01 | 0.01 | 89 | 1017.0 |
| 20260506224639 | 49 | 254 | 0.0 | 7.8 | 0.02 | 0.01 | 0.01 | 89 | 1016.9 |
| 20260506224539 | 49 | 254 | 0.0 | 7.8 | 0.02 | 0.01 | 0.01 | 89 | 1016.9 |
| 20260506224442 | 49 | 261 | 0.0 | 7.8 | 0.02 | 0.01 | 0.01 | 89 | 1016.9 |
| 20260506224338 | 49 | 241 | 0.0 | 6.1 | 0.02 | 0.01 | 0.01 | 89 | 1017.0 |
| 20260506224238 | 49 | 251 | 0.0 | 3.5 | 0.02 | 0.01 | 0.01 | 89 | 1016.9 |
| 20260506224141 | 49 | 209 | 0.0 | 3.5 | 0.02 | 0.01 | 0.01 | 89 | 1016.9 |
| 20260506224043 | 49 | 286 | 0.0 | 3.5 | 0.02 | 0.01 | 0.01 | 89 | 1016.9 |
| 20260506223935 | 49 | 243 | 0.0 | 3.5 | 0.02 | 0.01 | 0.01 | 89 | 1016.9 |
| 20260506223837 | 49 | 239 | 0.0 | 3.5 | 0.02 | 0.01 | 0.01 | 89 | 1017.0 |
| 20260506223735 | 49 | 229 | 0.0 | 3.5 | 0.02 | 0.01 | 0.01 | 89 | 1016.9 |
| 20260506223635 | 49 | 244 | 0.0 | 3.5 | 0.02 | 0.01 | 0.01 | 89 | 1016.9 |
| 20260506223535 | 49 | 254 | 0.0 | 3.5 | 0.02 | 0.01 | 0.01 | 89 | 1017.0 |
| 20260506223438 | 49 | 240 | 0.0 | 3.5 | 0.02 | 0.01 | 0.01 | 88 | 1017.0 |
| 20260506223335 | 49 | 240 | 0.0 | 3.5 | 0.02 | 0.01 | 0.01 | 89 | 1017.0 |
| 20260506223235 | 49 | 297 | 0.0 | 2.6 | 0.02 | 0.01 | 0.01 | 89 | 1017.0 |
| 20260506223136 | 49 | 229 | 0.0 | 2.6 | 0.02 | 0.01 | 0.01 | 89 | 1017.1 |
| 20260506223035 | 49 | 219 | 0.0 | 2.6 | 0.02 | 0.01 | 0.00 | 89 | 1017.1 |
| 20260506222935 | 49 | 239 | 0.0 | 1.7 | 0.01 | 0.01 | 0.00 | 88 | 1017.1 |
| 20260506222838 | 49 | 257 | 0.0 | 1.7 | 0.01 | 0.01 | 0.00 | 88 | 1017.1 |
| 20260506222735 | 49 | 256 | 0.0 | 1.7 | 0.01 | 0.01 | 0.00 | 88 | 1017.1 |
| 20260506222636 | 49 | 256 | 0.0 | 1.7 | 0.01 | 0.01 | 0.00 | 88 | 1017.1 |
| 20260506222536 | 49 | 233 | 0.0 | 1.7 | 0.01 | 0.01 | 0.00 | 88 | 1017.1 |
| 20260506222437 | 49 | 241 | 0.0 | 0.9 | 0.01 | 0.01 | 0.00 | 88 | 1017.1 |
| 20260506222335 | 49 | 236 | 0.0 | 0.9 | 0.01 | 0.01 | 0.00 | 88 | 1017.1 |
| 20260506222236 | 49 | 200 | 0.0 | 0.9 | 0.01 | 0.01 | 0.00 | 88 | 1017.1 |
| 20260506222135 | 49 | 200 | 0.0 | 0.9 | 0.01 | 0.01 | 0.00 | 88 | 1017.1 |
| 20260506222102 | 50 | 200 | 0.0 | 0.9 | 0.01 | 0.01 | 0.00 | 88 | 1017.1 |
| 20260506221933 | 50 | 200 | 0.0 | 0.9 | 0.01 | 0.01 | 0.00 | 88 | 1017.1 |
| 20260506221831 | 50 | 292 | 0.0 | 0.9 | 0.01 | 0.01 | 0.00 | 88 | 1017.1 |
| 20260506221731 | 50 | 234 | 0.0 | 0.9 | 0.01 | 0.01 | 0.00 | 88 | 1017.2 |
| 20260506221632 | 50 | 234 | 0.0 | 0.9 | 0.01 | 0.01 | 0.00 | 88 | 1017.2 |
| 20260506221534 | 50 | 234 | 0.0 | 0.9 | 0.01 | 0.01 | 0.00 | 88 | 1017.2 |
| 20260506221432 | 50 | 234 | 0.0 | 0.9 | 0.01 | 0.01 | 0.00 | 88 | 1017.2 |
| 20260506221331 | 50 | 234 | 0.0 | 0.9 | 0.01 | 0.01 | 0.00 | 88 | 1017.1 |
| 20260506221231 | 50 | 234 | 0.0 | 0.9 | 0.01 | 0.01 | 0.00 | 88 | 1017.2 |
| 20260506221134 | 50 | 240 | 0.0 | 0.9 | 0.01 | 0.01 | 0.00 | 88 | 1017.1 |
| 20260506221031 | 50 | 242 | 0.0 | 0.9 | 0.01 | 0.01 | 0.00 | 88 | 1017.2 |
| 20260506220932 | 50 | 265 | 0.0 | 0.9 | 0.01 | 0.01 | 0.00 | 88 | 1017.2 |
| 20260506220831 | 50 | 281 | 0.0 | 0.0 | 0.01 | 0.01 | 0.00 | 88 | 1017.2 |
| 20260506220733 | 50 | 319 | 0.0 | 0.0 | 0.01 | 0.01 | 0.00 | 88 | 1017.2 |
| 20260506220631 | 50 | 321 | 0.0 | 0.0 | 0.01 | 0.01 | 0.00 | 88 | 1017.2 |
| 20260506220531 | 50 | 321 | 0.0 | 0.0 | 0.01 | 0.01 | 0.00 | 89 | 1017.1 |
| 20260506220431 | 50 | 321 | 0.0 | 0.0 | 0.01 | 0.01 | 0.00 | 89 | 1017.2 |
| 20260506220334 | 50 | 355 | 0.0 | 0.0 | 0.01 | 0.01 | 0.00 | 89 | 1017.2 |
| 20260506220233 | 50 | 327 | 0.0 | 0.0 | 0.01 | 0.01 | 0.00 | 89 | 1017.2 |
| 20260506220127 | 50 | 328 | 0.0 | 0.0 | 0.01 | 0.01 | 0.00 | 89 | 1017.1 |
| 20260506220026 | 50 | 340 | 0.0 | 0.0 | 0.01 | 0.01 | 0.00 | 89 | 1017.1 |
| 20260506215928 | 50 | 219 | 0.0 | 0.0 | 0.01 | 0.00 | 0.01 | 89 | 1017.2 |
| 20260506215829 | 51 | 219 | 0.0 | 0.0 | 0.01 | 0.00 | 0.01 | 88 | 1017.1 |
| 20260506215725 | 50 | 219 | 0.0 | 0.0 | 0.01 | 0.00 | 0.01 | 88 | 1017.1 |
| 20260506215622 | 50 | 219 | 0.0 | 0.0 | 0.01 | 0.00 | 0.00 | 88 | 1017.1 |
| 20260506215520 | 51 | 219 | 0.0 | 0.0 | 0.00 | 0.00 | 0.00 | 88 | 1017.0 |
| 20260506215423 | 51 | 219 | 0.0 | 0.0 | 0.00 | 0.00 | 0.00 | 88 | 1017.1 |
| 20260506215318 | 51 | 219 | 0.0 | 0.0 | 0.00 | 0.00 | 0.00 | 88 | 1017.1 |
| 20260506215218 | 51 | 219 | 0.0 | 0.0 | 0.00 | 0.00 | 0.00 | 88 | 1017.0 |
| 20260506215118 | 51 | 219 | 0.0 | 0.0 | 0.00 | 0.00 | 0.00 | 88 | 1017.0 |
| 20260506215016 | 51 | 219 | 0.0 | 0.0 | 0.00 | 0.00 | 0.00 | 88 | 1017.1 |
| 20260506214914 | 51 | 219 | 0.0 | 0.0 | 0.00 | 0.00 | 0.00 | 88 | 1017.1 |
| 20260506214816 | 51 | 219 | 0.0 | 0.0 | 0.00 | 0.00 | 0.00 | 88 | 1017.0 |
| 20260506214712 | 51 | 219 | 0.0 | 0.0 | 0.00 | 0.00 | 0.00 | 88 | 1017.0 |
| 20260506214613 | 51 | 219 | 0.0 | 0.0 | 0.00 | 0.00 | 0.00 | 88 | 1017.0 |
| 20260506214514 | 51 | 219 | 0.0 | 0.0 | 0.00 | 0.00 | 0.00 | 88 | 1017.0 |
| 20260506214415 | 51 | 219 | 0.0 | 0.0 | 0.00 | 0.00 | 0.00 | 88 | 1016.9 |
| 20260506214313 | 51 | 219 | 0.0 | 0.0 | 0.00 | 0.00 | 0.00 | 88 | 1016.9 |
| 20260506214208 | 51 | 219 | 0.0 | 0.0 | 0.00 | 0.00 | 0.00 | 88 | 1016.9 |
| 20260506214109 | 51 | 219 | 0.0 | 0.0 | 0.00 | 0.00 | 0.00 | 88 | 1016.9 |
| 20260506214006 | 51 | 219 | 0.0 | 0.0 | 0.00 | 0.00 | 0.00 | 88 | 1016.8 |
| 20260506213904 | 51 | 219 | 0.0 | 0.0 | 0.00 | 0.00 | 0.00 | 88 | 1016.8 |
| 20260506213804 | 51 | 219 | 0.0 | 0.0 | 0.00 | 0.00 | 0.00 | 87 | 1016.8 |
| 20260506213705 | 51 | 219 | 0.0 | 0.0 | 0.00 | 0.00 | 0.00 | 87 | 1016.8 |
| 20260506213605 | 51 | 219 | 0.0 | 0.0 | 0.00 | 0.00 | 0.00 | 87 | 1016.8 |
| 20260506213503 | 51 | 219 | 0.0 | 0.0 | 0.00 | 0.00 | 0.00 | 87 | 1016.8 |
| 20260506213405 | 51 | 219 | 0.0 | 0.0 | 0.00 | 0.00 | 0.00 | 87 | 1016.7 |
| 20260506213305 | 51 | 219 | 0.0 | 0.0 | 0.00 | 0.00 | 0.00 | 87 | 1016.8 |
| 20260506213202 | 51 | 219 | 0.0 | 0.0 | 0.00 | 0.00 | 0.00 | 87 | 1016.8 |
| 20260506213101 | 51 | 219 | 0.0 | 0.0 | 0.00 | 0.00 | 0.00 | 87 | 1016.7 |
| 20260506213003 | 51 | 219 | 0.0 | 0.0 | 0.00 | 0.00 | 0.00 | 88 | 1016.8 |
| 20260506212854 | 51 | 219 | 0.0 | 0.0 | 0.00 | 0.00 | 0.00 | 88 | 1016.7 |
| 20260506212755 | 51 | 219 | 0.0 | 0.0 | 0.00 | 0.00 | 0.00 | 88 | 1016.7 |
| 20260506212652 | 51 | 219 | 0.0 | 0.0 | 0.00 | 0.00 | 0.00 | 88 | 1016.7 |